Observation data for Hobbs on 07/11/2018      Previous  Date       Current Mesonet Observations  Soil Data  Daily Summary Page  Observations in Plain Language
KHO1 110500Z 17006KT 23/17 A302 RMK A01 T02270167  RH  069%=      5-min Rain = 0
KHO1 110501Z 17006KT 23/17 A3019 RMK A01 T02270168  RH  069%=      5-min Rain = 0
KHO1 110502Z 17006KT 23/17 A3019 RMK A01 T02260168  RH  069%=      5-min Rain = 0
KHO1 110503Z 17006KT 23/17 A3019 RMK A01 T02260168  RH  069%=      5-min Rain = 0
KHO1 110504Z 17005KT 23/17 A3019 RMK A01 T02260168  RH  070%=      5-min Rain = 0
KHO1 110505Z 18006KT 23/17 A3019 RMK A01 T02260168  RH  070%=      5-min Rain = 0
KHO1 110506Z 18006KT 23/17 A3019 RMK A01 T02250168  RH  070%=      5-min Rain = 0
KHO1 110507Z 18005KT 23/17 A3019 RMK A01 T02250168  RH  070%=      5-min Rain = 0
KHO1 110508Z 18006KT 23/17 A3019 RMK A01 T02250169  RH  071%=      5-min Rain = 0
KHO1 110509Z 18006KT 22/17 A3019 RMK A01 T02240168  RH  071%=      5-min Rain = 0
KHO1 110510Z 18005KT 22/17 A3019 RMK A01 T02240169  RH  071%=      5-min Rain = 0
KHO1 110511Z 18006KT 22/17 A3019 RMK A01 T02240169  RH  071%=      5-min Rain = 0
KHO1 110512Z 18005KT 22/17 A3019 RMK A01 T02240168  RH  071%=      5-min Rain = 0
KHO1 110513Z 18005KT 22/17 A3019 RMK A01 T02240168  RH  071%=      5-min Rain = 0
KHO1 110514Z 18005KT 22/17 A3019 RMK A01 T02230169  RH  071%=      5-min Rain = 0
KHO1 110515Z 18005KT 22/17 A3019 RMK A01 T02230168  RH  071%=      5-min Rain = 0
KHO1 110516Z 18005KT 22/17 A3019 RMK A01 T02230169  RH  071%=      5-min Rain = 0
KHO1 110517Z 18005KT 22/17 A3019 RMK A01 T02220168  RH  071%=      5-min Rain = 0
KHO1 110518Z 18005KT 22/17 A3019 RMK A01 T02230169  RH  071%=      5-min Rain = 0
KHO1 110519Z 18005KT 22/17 A3019 RMK A01 T02230168  RH  071%=      5-min Rain = 0
KHO1 110520Z 18005KT 22/17 A3019 RMK A01 T02230168  RH  071%=      5-min Rain = 0
KHO1 110521Z 18006KT 22/17 A3019 RMK A01 T02230168  RH  071%=      5-min Rain = 0
KHO1 110522Z 18006KT 22/17 A3019 RMK A01 T02230168  RH  071%=      5-min Rain = 0
KHO1 110523Z 18005KT 22/17 A3019 RMK A01 T02230168  RH  071%=      5-min Rain = 0
KHO1 110524Z 18005KT 22/17 A3019 RMK A01 T02230168  RH  071%=      5-min Rain = 0
KHO1 110525Z 18005KT 22/17 A3019 RMK A01 T02230168  RH  071%=      5-min Rain = 0
KHO1 110526Z 18005KT 22/17 A3019 RMK A01 T02230168  RH  071%=      5-min Rain = 0
KHO1 110527Z 18005KT 22/17 A3019 RMK A01 T02220169  RH  072%=      5-min Rain = 0
KHO1 110528Z 18005KT 22/17 A3019 RMK A01 T02220168  RH  072%=      5-min Rain = 0
KHO1 110529Z 18005KT 22/17 A3019 RMK A01 T02220169  RH  072%=      5-min Rain = 0
KHO1 110530Z 18005KT 22/17 A3019 RMK A01 T02220169  RH  072%=      5-min Rain = 0
KHO1 110531Z 18006KT 22/17 A3019 RMK A01 T02230168  RH  071%=      5-min Rain = 0
KHO1 110532Z 18006KT 22/17 A3019 RMK A01 T02230169  RH  071%=      5-min Rain = 0
KHO1 110533Z 18006KT 22/17 A3019 RMK A01 T02230168  RH  071%=      5-min Rain = 0
KHO1 110534Z 18006KT 22/17 A3019 RMK A01 T02230168  RH  071%=      5-min Rain = 0
KHO1 110535Z 18006KT 22/17 A3019 RMK A01 T02240168  RH  071%=      5-min Rain = 0
KHO1 110536Z 18006KT 22/17 A3019 RMK A01 T02240168  RH  071%=      5-min Rain = 0
KHO1 110537Z 18006KT 22/17 A3019 RMK A01 T02240168  RH  071%=      5-min Rain = 0
KHO1 110538Z 18006KT 22/17 A3019 RMK A01 T02240168  RH  071%=      5-min Rain = 0
KHO1 110539Z 17006KT 22/17 A3019 RMK A01 T02240168  RH  071%=      5-min Rain = 0
KHO1 110540Z 17005KT 22/17 A3019 RMK A01 T02240168  RH  071%=      5-min Rain = 0
KHO1 110541Z 17005KT 22/17 A3019 RMK A01 T02230168  RH  071%=      5-min Rain = 0
KHO1 110542Z 17005KT 22/17 A3019 RMK A01 T02230168  RH  071%=      5-min Rain = 0
KHO1 110543Z 17005KT 22/17 A3019 RMK A01 T02230168  RH  071%=      5-min Rain = 0
KHO1 110544Z 17005KT 22/17 A3019 RMK A01 T02230168  RH  071%=      5-min Rain = 0
KHO1 110545Z 17005KT 22/17 A3019 RMK A01 T02220168  RH  071%=      5-min Rain = 0
KHO1 110546Z 17004KT 22/17 A3019 RMK A01 T02220168  RH  072%=      5-min Rain = 0
KHO1 110547Z 17004KT 22/17 A3019 RMK A01 T02220168  RH  072%=      5-min Rain = 0
KHO1 110548Z 17004KT 22/17 A3019 RMK A01 T02210168  RH  072%=      5-min Rain = 0
KHO1 110549Z 17004KT 22/17 A3019 RMK A01 T02210168  RH  072%=      5-min Rain = 0
KHO1 110550Z 17004KT 22/17 A3019 RMK A01 T02200168  RH  072%=      5-min Rain = 0
KHO1 110551Z 17005KT 22/17 A3019 RMK A01 T02200168  RH  072%=      5-min Rain = 0
KHO1 110552Z 17004KT 22/17 A3019 RMK A01 T02200168  RH  072%=      5-min Rain = 0
KHO1 110553Z 17004KT 22/17 A3019 RMK A01 T02200169  RH  073%=      5-min Rain = 0
KHO1 110554Z 17004KT 22/17 A3019 RMK A01 T02200169  RH  073%=      5-min Rain = 0
KHO1 110555Z 17005KT 22/17 A302 RMK A01 T02200168  RH  073%=      5-min Rain = 0
KHO1 110556Z 17004KT 22/17 A302 RMK A01 T02200169  RH  073%=      5-min Rain = 0
KHO1 110557Z 17004KT 22/17 A302 RMK A01 T02190168  RH  073%=      5-min Rain = 0
KHO1 110558Z 17004KT 22/17 A302 RMK A01 T02190168  RH  073%=      5-min Rain = 0
KHO1 110559Z 17003KT 22/17 A302 RMK A01 T02190168  RH  073%=      5-min Rain = 0
KHO1 110600Z 17003KT 22/17 A302 RMK A01 T02190169  RH  073%=      5-min Rain = 0
KHO1 110601Z 17003KT 22/17 A302 RMK A01 T02190169  RH  073%=      5-min Rain = 0
KHO1 110602Z 17003KT 22/17 A302 RMK A01 T02180169  RH  073%=      5-min Rain = 0
KHO1 110603Z 17003KT 22/17 A302 RMK A01 T02180169  RH  073%=      5-min Rain = 0
KHO1 110604Z 17003KT 22/17 A302 RMK A01 T02180169  RH  074%=      5-min Rain = 0
KHO1 110605Z 18003KT 22/17 A302 RMK A01 T02180169  RH  073%=      5-min Rain = 0
KHO1 110606Z 18003KT 22/17 A302 RMK A01 T02180169  RH  073%=      5-min Rain = 0
KHO1 110607Z 17003KT 22/17 A302 RMK A01 T02180168  RH  073%=      5-min Rain = 0
KHO1 110608Z 18003KT 22/17 A302 RMK A01 T02180168  RH  073%=      5-min Rain = 0
KHO1 110609Z 18003KT 22/17 A302 RMK A01 T02180169  RH  073%=      5-min Rain = 0
KHO1 110610Z 17003KT 22/17 A302 RMK A01 T02180169  RH  073%=      5-min Rain = 0
KHO1 110611Z 17003KT 22/17 A302 RMK A01 T02190169  RH  073%=      5-min Rain = 0
KHO1 110612Z 17003KT 22/17 A302 RMK A01 T02180169  RH  073%=      5-min Rain = 0
KHO1 110613Z 17004KT 22/17 A302 RMK A01 T02180169  RH  074%=      5-min Rain = 0
KHO1 110614Z 17004KT 22/17 A302 RMK A01 T02180169  RH  074%=      5-min Rain = 0
KHO1 110615Z 17004KT 22/17 A302 RMK A01 T02180169  RH  074%=      5-min Rain = 0
KHO1 110616Z 17004KT 22/17 A302 RMK A01 T02180169  RH  074%=      5-min Rain = 0
KHO1 110617Z 17004KT 22/17 A302 RMK A01 T02170169  RH  074%=      5-min Rain = 0
KHO1 110618Z 17004KT 22/17 A302 RMK A01 T02180169  RH  073%=      5-min Rain = 0
KHO1 110619Z 17004KT 22/17 A302 RMK A01 T02180168  RH  073%=      5-min Rain = 0
KHO1 110620Z 16004KT 22/17 A302 RMK A01 T02190169  RH  073%=      5-min Rain = 0
KHO1 110621Z 16004KT 22/17 A302 RMK A01 T02190168  RH  073%=      5-min Rain = 0
KHO1 110622Z 16004KT 22/17 A302 RMK A01 T02190169  RH  073%=      5-min Rain = 0
KHO1 110623Z 16005KT 22/17 A302 RMK A01 T02190169  RH  073%=      5-min Rain = 0
KHO1 110624Z 16004KT 22/17 A302 RMK A01 T02190168  RH  073%=      5-min Rain = 0
KHO1 110625Z 16005KT 22/17 A302 RMK A01 T02190168  RH  073%=      5-min Rain = 0
KHO1 110626Z 16004KT 22/17 A302 RMK A01 T02190169  RH  073%=      5-min Rain = 0
KHO1 110627Z 16004KT 22/17 A302 RMK A01 T02190168  RH  073%=      5-min Rain = 0
KHO1 110628Z 16005KT 22/17 A302 RMK A01 T02190169  RH  073%=      5-min Rain = 0
KHO1 110629Z 16005KT 22/17 A302 RMK A01 T02190168  RH  073%=      5-min Rain = 0
KHO1 110630Z 16005KT 22/17 A302 RMK A01 T02190168  RH  073%=      5-min Rain = 0
KHO1 110631Z 16005KT 22/17 A302 RMK A01 T02190168  RH  073%=      5-min Rain = 0
KHO1 110632Z 16005KT 22/17 A302 RMK A01 T02190168  RH  073%=      5-min Rain = 0
KHO1 110633Z 16005KT 22/17 A302 RMK A01 T02200168  RH  072%=      5-min Rain = 0
KHO1 110634Z 16005KT 22/17 A3019 RMK A01 T02200168  RH  072%=      5-min Rain = 0
KHO1 110635Z 16005KT 22/17 A302 RMK A01 T02200167  RH  072%=      5-min Rain = 0
KHO1 110636Z 16005KT 22/17 A3019 RMK A01 T02200167  RH  072%=      5-min Rain = 0
KHO1 110637Z 16005KT 22/17 A3019 RMK A01 T02200167  RH  072%=      5-min Rain = 0
KHO1 110638Z 16005KT 22/17 A3019 RMK A01 T02200167  RH  072%=      5-min Rain = 0
KHO1 110639Z 16005KT 22/17 A3019 RMK A01 T02200167  RH  072%=      5-min Rain = 0
KHO1 110640Z 16005KT 22/17 A302 RMK A01 T02200167  RH  072%=      5-min Rain = 0
KHO1 110641Z 16005KT 22/17 A302 RMK A01 T02190166  RH  072%=      5-min Rain = 0
KHO1 110642Z 16005KT 22/17 A302 RMK A01 T02190167  RH  072%=      5-min Rain = 0
KHO1 110643Z 16005KT 22/17 A302 RMK A01 T02190166  RH  072%=      5-min Rain = 0
KHO1 110644Z 15005KT 22/17 A302 RMK A01 T02190167  RH  072%=      5-min Rain = 0
KHO1 110645Z 15004KT 22/17 A302 RMK A01 T02180167  RH  072%=      5-min Rain = 0
KHO1 110646Z 15004KT 22/17 A302 RMK A01 T02180167  RH  073%=      5-min Rain = 0
KHO1 110647Z 15005KT 22/17 A3019 RMK A01 T02180166  RH  072%=      5-min Rain = 0
KHO1 110648Z 15005KT 22/17 A302 RMK A01 T02190165  RH  072%=      5-min Rain = 0
KHO1 110649Z 15004KT 22/17 A302 RMK A01 T02200166  RH  071%=      5-min Rain = 0
KHO1 110650Z 16005KT 22/17 A302 RMK A01 T02190166  RH  072%=      5-min Rain = 0
KHO1 110651Z 15005KT 22/17 A302 RMK A01 T02190165  RH  071%=      5-min Rain = 0
KHO1 110652Z 15005KT 22/17 A302 RMK A01 T02190165  RH  071%=      5-min Rain = 0
KHO1 110653Z 15004KT 22/17 A302 RMK A01 T02190165  RH  072%=      5-min Rain = 0
KHO1 110654Z 15005KT 22/17 A302 RMK A01 T02180165  RH  072%=      5-min Rain = 0
KHO1 110655Z 15004KT 22/17 A3019 RMK A01 T02180165  RH  072%=      5-min Rain = 0
KHO1 110656Z 15004KT 22/17 A3019 RMK A01 T02180165  RH  072%=      5-min Rain = 0
KHO1 110657Z 15005KT 22/17 A3019 RMK A01 T02180165  RH  072%=      5-min Rain = 0
KHO1 110658Z 15005KT 22/17 A3019 RMK A01 T02170165  RH  072%=      5-min Rain = 0
KHO1 110659Z 15005KT 22/17 A3019 RMK A01 T02180165  RH  072%=      5-min Rain = 0
KHO1 110700Z 15006KT 22/16 A3019 RMK A01 T02180164  RH  072%=      5-min Rain = 0
KHO1 110701Z 15005KT 22/16 A3019 RMK A01 T02180164  RH  072%=      5-min Rain = 0
KHO1 110702Z 16004KT 22/16 A3019 RMK A01 T02180164  RH  072%=      5-min Rain = 0
KHO1 110703Z 15005KT 22/16 A3019 RMK A01 T02180163  RH  071%=      5-min Rain = 0
KHO1 110704Z 15006KT 22/16 A3019 RMK A01 T02190163  RH  071%=      5-min Rain = 0
KHO1 110705Z 15006KT 22/16 A3019 RMK A01 T02190162  RH  070%=      5-min Rain = 0
KHO1 110706Z 15006KT 22/16 A3019 RMK A01 T02200161  RH  069%=      5-min Rain = 0
KHO1 110707Z 15006KT 22/16 A3019 RMK A01 T02210161  RH  069%=      5-min Rain = 0
KHO1 110708Z 16006KT 22/16 A3019 RMK A01 T02210161  RH  069%=      5-min Rain = 0
KHO1 110709Z 16006KT 22/16 A3019 RMK A01 T02210161  RH  069%=      5-min Rain = 0
KHO1 110710Z 16006KT 22/16 A3019 RMK A01 T02210161  RH  069%=      5-min Rain = 0
KHO1 110711Z 16005KT 22/16 A3019 RMK A01 T02210161  RH  069%=      5-min Rain = 0
KHO1 110712Z 16006KT 22/16 A3019 RMK A01 T02200161  RH  069%=      5-min Rain = 0
KHO1 110713Z 16006KT 22/16 A3019 RMK A01 T02200161  RH  069%=      5-min Rain = 0
KHO1 110714Z 16006KT 22/16 A3019 RMK A01 T02200160  RH  069%=      5-min Rain = 0
KHO1 110715Z 16006KT 22/16 A3019 RMK A01 T02200159  RH  068%=      5-min Rain = 0
KHO1 110716Z 16006KT 22/16 A3019 RMK A01 T02200159  RH  068%=      5-min Rain = 0
KHO1 110717Z 16007KT 22/16 A3019 RMK A01 T02200158  RH  068%=      5-min Rain = 0
KHO1 110718Z 16007KT 22/16 A3019 RMK A01 T02200158  RH  068%=      5-min Rain = 0
KHO1 110719Z 16006KT 22/16 A3019 RMK A01 T02200158  RH  068%=      5-min Rain = 0
KHO1 110720Z 16006KT 22/16 A3019 RMK A01 T02200157  RH  068%=      5-min Rain = 0
KHO1 110721Z 16006KT 22/16 A3019 RMK A01 T02200157  RH  067%=      5-min Rain = 0
KHO1 110722Z 16006KT 22/16 A3019 RMK A01 T02200157  RH  067%=      5-min Rain = 0
KHO1 110723Z 16006KT 22/16 A3019 RMK A01 T02200157  RH  067%=      5-min Rain = 0
KHO1 110724Z 16006KT 22/16 A3019 RMK A01 T02200157  RH  067%=      5-min Rain = 0
KHO1 110725Z 16006KT 22/16 A3019 RMK A01 T02200157  RH  067%=      5-min Rain = 0
KHO1 110726Z 16005KT 22/16 A3019 RMK A01 T02200156  RH  067%=      5-min Rain = 0
KHO1 110727Z 16005KT 22/16 A3019 RMK A01 T02200156  RH  067%=      5-min Rain = 0
KHO1 110728Z 16006KT 22/16 A3019 RMK A01 T02200156  RH  067%=      5-min Rain = 0
KHO1 110729Z 16005KT 22/16 A3019 RMK A01 T02190156  RH  067%=      5-min Rain = 0
KHO1 110730Z 16006KT 22/16 A3019 RMK A01 T02190156  RH  067%=      5-min Rain = 0
KHO1 110731Z 16006KT 22/16 A3019 RMK A01 T02190156  RH  067%=      5-min Rain = 0
KHO1 110732Z 16005KT 22/16 A3019 RMK A01 T02190156  RH  067%=      5-min Rain = 0
KHO1 110733Z 16006KT 22/16 A3019 RMK A01 T02190156  RH  067%=      5-min Rain = 0
KHO1 110734Z 16006KT 22/16 A3019 RMK A01 T02190155  RH  067%=      5-min Rain = 0
KHO1 110735Z 16006KT 22/16 A3019 RMK A01 T02190155  RH  067%=      5-min Rain = 0
KHO1 110736Z 16005KT 22/16 A3019 RMK A01 T02190156  RH  067%=      5-min Rain = 0
KHO1 110737Z 16005KT 22/16 A3019 RMK A01 T02190155  RH  067%=      5-min Rain = 0
KHO1 110738Z 16005KT 22/16 A3019 RMK A01 T02190155  RH  067%=      5-min Rain = 0
KHO1 110739Z 17005KT 22/16 A3019 RMK A01 T02190155  RH  067%=      5-min Rain = 0
KHO1 110740Z 17005KT 22/16 A3019 RMK A01 T02180155  RH  067%=      5-min Rain = 0
KHO1 110741Z 17005KT 22/16 A3019 RMK A01 T02180155  RH  067%=      5-min Rain = 0
KHO1 110742Z 17005KT 22/16 A3019 RMK A01 T02180155  RH  067%=      5-min Rain = 0
KHO1 110743Z 17005KT 22/16 A3019 RMK A01 T02170155  RH  068%=      5-min Rain = 0
KHO1 110744Z 17005KT 22/16 A3019 RMK A01 T02170155  RH  068%=      5-min Rain = 0
KHO1 110745Z 17005KT 22/16 A3019 RMK A01 T02160155  RH  068%=      5-min Rain = 0
KHO1 110746Z 17004KT 22/16 A3019 RMK A01 T02160155  RH  068%=      5-min Rain = 0
KHO1 110747Z 17005KT 22/16 A3019 RMK A01 T02160155  RH  068%=      5-min Rain = 0
KHO1 110748Z 17004KT 22/16 A3019 RMK A01 T02160155  RH  068%=      5-min Rain = 0
KHO1 110749Z 17004KT 22/16 A3019 RMK A01 T02160155  RH  068%=      5-min Rain = 0
KHO1 110750Z 18004KT 22/16 A3019 RMK A01 T02150155  RH  069%=      5-min Rain = 0
KHO1 110751Z 18004KT 21/16 A3019 RMK A01 T02140155  RH  069%=      5-min Rain = 0
KHO1 110752Z 18004KT 21/16 A3019 RMK A01 T02140155  RH  069%=      5-min Rain = 0
KHO1 110753Z 18004KT 21/15 A3019 RMK A01 T02130154  RH  069%=      5-min Rain = 0
KHO1 110754Z 17005KT 21/15 A3019 RMK A01 T02130154  RH  069%=      5-min Rain = 0
KHO1 110755Z 18005KT 21/15 A3019 RMK A01 T02130154  RH  069%=      5-min Rain = 0
KHO1 110756Z 18005KT 21/15 A3019 RMK A01 T02130153  RH  069%=      5-min Rain = 0
KHO1 110757Z 18005KT 21/15 A3019 RMK A01 T02130153  RH  069%=      5-min Rain = 0
KHO1 110758Z 18005KT 21/15 A3019 RMK A01 T02130153  RH  069%=      5-min Rain = 0
KHO1 110759Z 18005KT 21/15 A3019 RMK A01 T02130152  RH  068%=      5-min Rain = 0
KHO1 110800Z 18005KT 21/15 A3019 RMK A01 T02120152  RH  068%=      5-min Rain = 0
KHO1 110801Z 18005KT 21/15 A3019 RMK A01 T02130151  RH  068%=      5-min Rain = 0
KHO1 110802Z 18005KT 21/15 A3019 RMK A01 T02130151  RH  068%=      5-min Rain = 0
KHO1 110803Z 18005KT 21/15 A3019 RMK A01 T02120151  RH  068%=      5-min Rain = 0
KHO1 110804Z 18005KT 21/15 A3019 RMK A01 T02130151  RH  068%=      5-min Rain = 0
KHO1 110805Z 18005KT 21/15 A3019 RMK A01 T02130151  RH  068%=      5-min Rain = 0
KHO1 110806Z 18005KT 21/15 A3019 RMK A01 T02120151  RH  068%=      5-min Rain = 0
KHO1 110807Z 18005KT 21/15 A3019 RMK A01 T02120151  RH  068%=      5-min Rain = 0
KHO1 110808Z 18005KT 21/15 A3019 RMK A01 T02120152  RH  069%=      5-min Rain = 0
KHO1 110809Z 18005KT 21/15 A3019 RMK A01 T02110151  RH  068%=      5-min Rain = 0
KHO1 110810Z 18005KT 21/15 A3019 RMK A01 T02110151  RH  068%=      5-min Rain = 0
KHO1 110811Z 18006KT 21/15 A3019 RMK A01 T02120150  RH  068%=      5-min Rain = 0
KHO1 110812Z 18005KT 21/15 A3019 RMK A01 T02120150  RH  068%=      5-min Rain = 0
KHO1 110813Z 18006KT 21/15 A3019 RMK A01 T02120150  RH  068%=      5-min Rain = 0
KHO1 110814Z 18006KT 21/15 A3019 RMK A01 T02120150  RH  068%=      5-min Rain = 0
KHO1 110815Z 18006KT 21/15 A3019 RMK A01 T02110149  RH  068%=      5-min Rain = 0
KHO1 110816Z 18005KT 21/15 A3019 RMK A01 T02110149  RH  068%=      5-min Rain = 0
KHO1 110817Z 18006KT 21/15 A3019 RMK A01 T02110150  RH  068%=      5-min Rain = 0
KHO1 110818Z 17006KT 21/15 A3018 RMK A01 T02110149  RH  068%=      5-min Rain = 0
KHO1 110819Z 17006KT 21/15 A3018 RMK A01 T02110149  RH  068%=      5-min Rain = 0
KHO1 110820Z 17005KT 21/15 A3018 RMK A01 T02110149  RH  068%=      5-min Rain = 0
KHO1 110821Z 17005KT 21/15 A3018 RMK A01 T02110149  RH  068%=      5-min Rain = 0
KHO1 110822Z 17005KT 21/15 A3018 RMK A01 T02110150  RH  068%=      5-min Rain = 0
KHO1 110823Z 17005KT 21/15 A3018 RMK A01 T02100149  RH  068%=      5-min Rain = 0
KHO1 110824Z 17005KT 21/15 A3018 RMK A01 T02100149  RH  068%=      5-min Rain = 0
KHO1 110825Z 17006KT 21/15 A3018 RMK A01 T02100149  RH  068%=      5-min Rain = 0
KHO1 110826Z 17005KT 21/15 A3018 RMK A01 T02100149  RH  068%=      5-min Rain = 0
KHO1 110827Z 17005KT 21/15 A3018 RMK A01 T02100149  RH  068%=      5-min Rain = 0
KHO1 110828Z 17005KT 21/15 A3018 RMK A01 T02100149  RH  068%=      5-min Rain = 0
KHO1 110829Z 17005KT 21/15 A3018 RMK A01 T02100149  RH  068%=      5-min Rain = 0
KHO1 110830Z 17005KT 21/15 A3018 RMK A01 T02100149  RH  068%=      5-min Rain = 0
KHO1 110831Z 18005KT 21/15 A3018 RMK A01 T02090149  RH  068%=      5-min Rain = 0
KHO1 110832Z 18005KT 21/15 A3018 RMK A01 T02090149  RH  069%=      5-min Rain = 0
KHO1 110833Z 18005KT 21/15 A3018 RMK A01 T02080149  RH  069%=      5-min Rain = 0
KHO1 110834Z 18005KT 21/15 A3018 RMK A01 T02080149  RH  069%=      5-min Rain = 0
KHO1 110835Z 17005KT 21/15 A3018 RMK A01 T02070149  RH  069%=      5-min Rain = 0
KHO1 110836Z 17005KT 21/15 A3018 RMK A01 T02070149  RH  069%=      5-min Rain = 0
KHO1 110837Z 17004KT 21/15 A3018 RMK A01 T02070149  RH  069%=      5-min Rain = 0
KHO1 110838Z 17004KT 21/15 A3017 RMK A01 T02070149  RH  069%=      5-min Rain = 0
KHO1 110839Z 17005KT 21/15 A3017 RMK A01 T02070149  RH  069%=      5-min Rain = 0
KHO1 110840Z 17004KT 21/15 A3017 RMK A01 T02070149  RH  069%=      5-min Rain = 0
KHO1 110841Z 17004KT 21/15 A3017 RMK A01 T02070149  RH  069%=      5-min Rain = 0
KHO1 110842Z 17004KT 21/15 A3017 RMK A01 T02070149  RH  069%=      5-min Rain = 0
KHO1 110843Z 17004KT 21/15 A3017 RMK A01 T02070149  RH  069%=      5-min Rain = 0
KHO1 110844Z 17004KT 21/15 A3017 RMK A01 T02070149  RH  070%=      5-min Rain = 0
KHO1 110845Z 17004KT 21/15 A3017 RMK A01 T02060149  RH  070%=      5-min Rain = 0
KHO1 110846Z 16004KT 21/15 A3017 RMK A01 T02060149  RH  070%=      5-min Rain = 0
KHO1 110847Z 16004KT 21/15 A3017 RMK A01 T02060149  RH  070%=      5-min Rain = 0
KHO1 110848Z 17004KT 21/15 A3017 RMK A01 T02060149  RH  070%=      5-min Rain = 0
KHO1 110849Z 16005KT 21/15 A3017 RMK A01 T02060149  RH  070%=      5-min Rain = 0
KHO1 110850Z 17004KT 21/15 A3017 RMK A01 T02060149  RH  070%=      5-min Rain = 0
KHO1 110851Z 17005KT 21/15 A3017 RMK A01 T02060149  RH  070%=      5-min Rain = 0
KHO1 110852Z 17005KT 21/15 A3017 RMK A01 T02060149  RH  070%=      5-min Rain = 0
KHO1 110853Z 16005KT 21/15 A3017 RMK A01 T02060149  RH  070%=      5-min Rain = 0
KHO1 110854Z 16005KT 21/15 A3017 RMK A01 T02060149  RH  070%=      5-min Rain = 0
KHO1 110855Z 16005KT 21/15 A3017 RMK A01 T02060149  RH  070%=      5-min Rain = 0
KHO1 110856Z 16005KT 21/15 A3017 RMK A01 T02050149  RH  070%=      5-min Rain = 0
KHO1 110857Z 16005KT 21/15 A3017 RMK A01 T02050149  RH  070%=      5-min Rain = 0
KHO1 110858Z 16005KT 21/15 A3017 RMK A01 T02050149  RH  070%=      5-min Rain = 0
KHO1 110859Z 17005KT 21/15 A3017 RMK A01 T02050149  RH  070%=      5-min Rain = 0
KHO1 110900Z 16005KT 21/15 A3017 RMK A01 T02050149  RH  070%=      5-min Rain = 0
KHO1 110901Z 17005KT 21/15 A3017 RMK A01 T02050149  RH  070%=      5-min Rain = 0
KHO1 110902Z 17005KT 21/15 A3016 RMK A01 T02060149  RH  070%=      5-min Rain = 0
KHO1 110903Z 17005KT 21/15 A3016 RMK A01 T02050148  RH  070%=      5-min Rain = 0
KHO1 110904Z 17005KT 21/15 A3016 RMK A01 T02050149  RH  070%=      5-min Rain = 0
KHO1 110905Z 17004KT 21/15 A3016 RMK A01 T02050148  RH  070%=      5-min Rain = 0
KHO1 110906Z 17005KT 21/15 A3016 RMK A01 T02050148  RH  070%=      5-min Rain = 0
KHO1 110907Z 17004KT 21/15 A3016 RMK A01 T02050148  RH  070%=      5-min Rain = 0
KHO1 110908Z 17005KT 21/15 A3016 RMK A01 T02050149  RH  070%=      5-min Rain = 0
KHO1 110909Z 17004KT 20/15 A3016 RMK A01 T02040149  RH  070%=      5-min Rain = 0
KHO1 110910Z 17004KT 20/15 A3016 RMK A01 T02040148  RH  070%=      5-min Rain = 0
KHO1 110911Z 17004KT 20/15 A3016 RMK A01 T02040148  RH  070%=      5-min Rain = 0
KHO1 110912Z 17004KT 20/15 A3016 RMK A01 T02040148  RH  070%=      5-min Rain = 0
KHO1 110913Z 17004KT 20/15 A3016 RMK A01 T02040149  RH  070%=      5-min Rain = 0
KHO1 110914Z 17004KT 20/15 A3016 RMK A01 T02040149  RH  070%=      5-min Rain = 0
KHO1 110915Z 17004KT 20/15 A3016 RMK A01 T02040149  RH  071%=      5-min Rain = 0
KHO1 110916Z 17004KT 20/15 A3016 RMK A01 T02030149  RH  071%=      5-min Rain = 0
KHO1 110917Z 17004KT 20/15 A3016 RMK A01 T02030149  RH  071%=      5-min Rain = 0
KHO1 110918Z 17004KT 20/15 A3016 RMK A01 T02020149  RH  071%=      5-min Rain = 0
KHO1 110919Z 17004KT 20/15 A3016 RMK A01 T02020149  RH  071%=      5-min Rain = 0
KHO1 110920Z 17004KT 20/15 A3016 RMK A01 T02020149  RH  071%=      5-min Rain = 0
KHO1 110921Z 17004KT 20/15 A3016 RMK A01 T02030149  RH  071%=      5-min Rain = 0
KHO1 110922Z 17004KT 20/15 A3016 RMK A01 T02030148  RH  071%=      5-min Rain = 0
KHO1 110923Z 17004KT 20/15 A3016 RMK A01 T02030149  RH  071%=      5-min Rain = 0
KHO1 110924Z 17004KT 20/15 A3016 RMK A01 T02030149  RH  071%=      5-min Rain = 0
KHO1 110925Z 17004KT 20/15 A3016 RMK A01 T02020149  RH  071%=      5-min Rain = 0
KHO1 110926Z 17004KT 20/15 A3016 RMK A01 T02020149  RH  071%=      5-min Rain = 0
KHO1 110927Z 17004KT 20/15 A3016 RMK A01 T02020149  RH  071%=      5-min Rain = 0
KHO1 110928Z 17004KT 20/15 A3016 RMK A01 T02020149  RH  071%=      5-min Rain = 0
KHO1 110929Z 17004KT 20/15 A3016 RMK A01 T02020149  RH  071%=      5-min Rain = 0
KHO1 110930Z 16004KT 20/15 A3016 RMK A01 T02020149  RH  071%=      5-min Rain = 0
KHO1 110931Z 17004KT 20/15 A3016 RMK A01 T02020149  RH  071%=      5-min Rain = 0
KHO1 110932Z 17004KT 20/15 A3016 RMK A01 T02020149  RH  071%=      5-min Rain = 0
KHO1 110933Z 16004KT 20/15 A3016 RMK A01 T02020149  RH  071%=      5-min Rain = 0
KHO1 110934Z 17004KT 20/15 A3016 RMK A01 T02020149  RH  071%=      5-min Rain = 0
KHO1 110935Z 17004KT 20/15 A3016 RMK A01 T02020149  RH  072%=      5-min Rain = 0
KHO1 110936Z 16004KT 20/15 A3016 RMK A01 T02020149  RH  072%=      5-min Rain = 0
KHO1 110937Z 17004KT 20/15 A3016 RMK A01 T02020149  RH  072%=      5-min Rain = 0
KHO1 110938Z 17004KT 20/15 A3016 RMK A01 T02020149  RH  072%=      5-min Rain = 0
KHO1 110939Z 17004KT 20/15 A3016 RMK A01 T02020149  RH  072%=      5-min Rain = 0
KHO1 110940Z 17004KT 20/15 A3016 RMK A01 T02020149  RH  072%=      5-min Rain = 0
KHO1 110941Z 17004KT 20/15 A3016 RMK A01 T02020149  RH  072%=      5-min Rain = 0
KHO1 110942Z 17004KT 20/15 A3015 RMK A01 T02020149  RH  072%=      5-min Rain = 0
KHO1 110943Z 16004KT 20/15 A3015 RMK A01 T02020149  RH  072%=      5-min Rain = 0
KHO1 110944Z 17004KT 20/15 A3016 RMK A01 T02020150  RH  072%=      5-min Rain = 0
KHO1 110945Z 17004KT 20/15 A3016 RMK A01 T02010150  RH  072%=      5-min Rain = 0
KHO1 110946Z 16004KT 20/15 A3016 RMK A01 T02010150  RH  072%=      5-min Rain = 0
KHO1 110947Z 16004KT 20/15 A3016 RMK A01 T02010150  RH  072%=      5-min Rain = 0
KHO1 110948Z 16004KT 20/15 A3016 RMK A01 T02010150  RH  072%=      5-min Rain = 0
KHO1 110949Z 16004KT 20/15 A3016 RMK A01 T02010150  RH  072%=      5-min Rain = 0
KHO1 110950Z 16004KT 20/15 A3016 RMK A01 T02010150  RH  072%=      5-min Rain = 0
KHO1 110951Z 16004KT 20/15 A3016 RMK A01 T02010150  RH  072%=      5-min Rain = 0
KHO1 110952Z 16004KT 20/15 A3016 RMK A01 T02010151  RH  072%=      5-min Rain = 0
KHO1 110953Z 16004KT 20/15 A3016 RMK A01 T02020151  RH  072%=      5-min Rain = 0
KHO1 110954Z 17004KT 20/15 A3016 RMK A01 T02020151  RH  072%=      5-min Rain = 0
KHO1 110955Z 17003KT 20/15 A3016 RMK A01 T02020151  RH  072%=      5-min Rain = 0
KHO1 110956Z 16003KT 20/15 A3016 RMK A01 T02020151  RH  072%=      5-min Rain = 0
KHO1 110957Z 16003KT 20/15 A3016 RMK A01 T02020151  RH  072%=      5-min Rain = 0
KHO1 110958Z 16003KT 20/15 A3016 RMK A01 T02020151  RH  073%=      5-min Rain = 0
KHO1 110959Z 16003KT 20/15 A3016 RMK A01 T02020151  RH  073%=      5-min Rain = 0
KHO1 111000Z 15003KT 20/15 A3016 RMK A01 T02010151  RH  073%=      5-min Rain = 0
KHO1 111001Z 15003KT 20/15 A3016 RMK A01 T02010151  RH  073%=      5-min Rain = 0
KHO1 111002Z 16004KT 20/15 A3016 RMK A01 T02010151  RH  073%=      5-min Rain = 0
KHO1 111003Z 15003KT 20/15 A3016 RMK A01 T02010151  RH  073%=      5-min Rain = 0
KHO1 111004Z 15003KT 20/15 A3016 RMK A01 T02010151  RH  073%=      5-min Rain = 0
KHO1 111005Z 15004KT 20/15 A3016 RMK A01 T02010151  RH  073%=      5-min Rain = 0
KHO1 111006Z 15004KT 20/15 A3016 RMK A01 T02010151  RH  073%=      5-min Rain = 0
KHO1 111007Z 15004KT 20/15 A3016 RMK A01 T02010151  RH  073%=      5-min Rain = 0
KHO1 111008Z 15003KT 20/15 A3016 RMK A01 T02010151  RH  073%=      5-min Rain = 0
KHO1 111009Z 15004KT 20/15 A3016 RMK A01 T02010151  RH  073%=      5-min Rain = 0
KHO1 111010Z 15003KT 20/15 A3016 RMK A01 T02010151  RH  073%=      5-min Rain = 0
KHO1 111011Z 15004KT 20/15 A3016 RMK A01 T02010150  RH  073%=      5-min Rain = 0
KHO1 111012Z 15004KT 20/15 A3016 RMK A01 T02010150  RH  072%=      5-min Rain = 0
KHO1 111013Z 15004KT 20/15 A3016 RMK A01 T02000149  RH  072%=      5-min Rain = 0
KHO1 111014Z 15004KT 20/15 A3016 RMK A01 T02000149  RH  072%=      5-min Rain = 0
KHO1 111015Z 15004KT 20/15 A3016 RMK A01 T01990148  RH  072%=      5-min Rain = 0
KHO1 111016Z 15004KT 20/15 A3016 RMK A01 T02000147  RH  072%=      5-min Rain = 0
KHO1 111017Z 15004KT 20/15 A3016 RMK A01 T02000147  RH  072%=      5-min Rain = 0
KHO1 111018Z 15004KT 20/15 A3016 RMK A01 T02000146  RH  071%=      5-min Rain = 0
KHO1 111019Z 15004KT 20/15 A3016 RMK A01 T02000145  RH  071%=      5-min Rain = 0
KHO1 111020Z 15004KT 20/15 A3016 RMK A01 T02000145  RH  071%=      5-min Rain = 0
KHO1 111021Z 15004KT 20/14 A3016 RMK A01 T02000144  RH  070%=      5-min Rain = 0
KHO1 111022Z 15004KT 20/14 A3016 RMK A01 T02000143  RH  069%=      5-min Rain = 0
KHO1 111023Z 15005KT 20/14 A3016 RMK A01 T02010142  RH  069%=      5-min Rain = 0
KHO1 111024Z 15004KT 20/14 A3016 RMK A01 T02010142  RH  069%=      5-min Rain = 0
KHO1 111025Z 15005KT 20/14 A3016 RMK A01 T02010142  RH  068%=      5-min Rain = 0
KHO1 111026Z 15005KT 20/14 A3016 RMK A01 T02010141  RH  068%=      5-min Rain = 0
KHO1 111027Z 15005KT 20/14 A3016 RMK A01 T02020141  RH  068%=      5-min Rain = 0
KHO1 111028Z 14004KT 20/14 A3016 RMK A01 T02020141  RH  068%=      5-min Rain = 0
KHO1 111029Z 14004KT 20/14 A3016 RMK A01 T02010141  RH  068%=      5-min Rain = 0
KHO1 111030Z 13003KT 20/14 A3016 RMK A01 T02010142  RH  069%=      5-min Rain = 0
KHO1 111031Z 14004KT 20/14 A3016 RMK A01 T02010141  RH  068%=      5-min Rain = 0
KHO1 111032Z 14004KT 20/14 A3016 RMK A01 T02010140  RH  068%=      5-min Rain = 0
KHO1 111033Z 14004KT 20/14 A3017 RMK A01 T02020140  RH  068%=      5-min Rain = 0
KHO1 111034Z 14004KT 20/14 A3017 RMK A01 T02020140  RH  067%=      5-min Rain = 0
KHO1 111035Z 14004KT 20/14 A3017 RMK A01 T02020139  RH  067%=      5-min Rain = 0
KHO1 111036Z 14004KT 20/14 A3017 RMK A01 T02020138  RH  067%=      5-min Rain = 0
KHO1 111037Z 14004KT 20/14 A3017 RMK A01 T02020138  RH  067%=      5-min Rain = 0
KHO1 111038Z 15004KT 20/14 A3017 RMK A01 T02020138  RH  067%=      5-min Rain = 0
KHO1 111039Z 15004KT 20/14 A3017 RMK A01 T02020138  RH  067%=      5-min Rain = 0
KHO1 111040Z 15004KT 20/14 A3017 RMK A01 T02020138  RH  067%=      5-min Rain = 0
KHO1 111041Z 15005KT 20/14 A3017 RMK A01 T02010137  RH  067%=      5-min Rain = 0
KHO1 111042Z 16004KT 20/14 A3017 RMK A01 T02020137  RH  066%=      5-min Rain = 0
KHO1 111043Z 16004KT 20/14 A3017 RMK A01 T02020136  RH  066%=      5-min Rain = 0
KHO1 111044Z 16005KT 20/14 A3017 RMK A01 T02030136  RH  065%=      5-min Rain = 0
KHO1 111045Z 16005KT 20/14 A3017 RMK A01 T02040135  RH  065%=      5-min Rain = 0
KHO1 111046Z 16005KT 21/13 A3017 RMK A01 T02050134  RH  064%=      5-min Rain = 0
KHO1 111047Z 16005KT 21/13 A3017 RMK A01 T02060134  RH  064%=      5-min Rain = 0
KHO1 111048Z 16005KT 21/13 A3017 RMK A01 T02060134  RH  063%=      5-min Rain = 0
KHO1 111049Z 16004KT 21/13 A3017 RMK A01 T02060134  RH  063%=      5-min Rain = 0
KHO1 111050Z 17004KT 21/13 A3017 RMK A01 T02060134  RH  063%=      5-min Rain = 0
KHO1 111051Z 17004KT 21/14 A3017 RMK A01 T02050135  RH  064%=      5-min Rain = 0
KHO1 111052Z 17004KT 20/14 A3017 RMK A01 T02040135  RH  064%=      5-min Rain = 0
KHO1 111053Z 16004KT 20/13 A3017 RMK A01 T02030134  RH  065%=      5-min Rain = 0
KHO1 111054Z 16004KT 20/13 A3017 RMK A01 T02030134  RH  064%=      5-min Rain = 0
KHO1 111055Z 16004KT 20/13 A3017 RMK A01 T02030134  RH  065%=      5-min Rain = 0
KHO1 111056Z 16004KT 20/13 A3017 RMK A01 T02030134  RH  065%=      5-min Rain = 0
KHO1 111057Z 16004KT 20/13 A3017 RMK A01 T02030134  RH  065%=      5-min Rain = 0
KHO1 111058Z 15005KT 20/14 A3017 RMK A01 T02030135  RH  065%=      5-min Rain = 0
KHO1 111059Z 15004KT 20/14 A3017 RMK A01 T02020135  RH  066%=      5-min Rain = 0
KHO1 111100Z 15005KT 20/14 A3017 RMK A01 T02010135  RH  066%=      5-min Rain = 0
KHO1 111101Z 15005KT 20/13 A3017 RMK A01 T02010134  RH  065%=      5-min Rain = 0
KHO1 111102Z 15004KT 20/14 A3017 RMK A01 T02010135  RH  066%=      5-min Rain = 0
KHO1 111103Z 15004KT 20/14 A3017 RMK A01 T02010135  RH  066%=      5-min Rain = 0
KHO1 111104Z 15004KT 20/14 A3017 RMK A01 T02000135  RH  066%=      5-min Rain = 0
KHO1 111105Z 14004KT 20/14 A3017 RMK A01 T02000135  RH  066%=      5-min Rain = 0
KHO1 111106Z 14004KT 20/14 A3017 RMK A01 T02000135  RH  066%=      5-min Rain = 0
KHO1 111107Z 15004KT 20/14 A3017 RMK A01 T02000135  RH  066%=      5-min Rain = 0
KHO1 111108Z 14004KT 20/14 A3017 RMK A01 T02000136  RH  066%=      5-min Rain = 0
KHO1 111109Z 14004KT 20/14 A3017 RMK A01 T01990135  RH  066%=      5-min Rain = 0
KHO1 111110Z 14004KT 20/14 A3017 RMK A01 T01990136  RH  067%=      5-min Rain = 0
KHO1 111111Z 14004KT 20/14 A3017 RMK A01 T01990136  RH  067%=      5-min Rain = 0
KHO1 111112Z 15003KT 20/14 A3017 RMK A01 T01980136  RH  067%=      5-min Rain = 0
KHO1 111113Z 14003KT 20/14 A3017 RMK A01 T01980136  RH  067%=      5-min Rain = 0
KHO1 111114Z 14003KT 20/14 A3017 RMK A01 T01980135  RH  067%=      5-min Rain = 0
KHO1 111115Z 14004KT 20/14 A3017 RMK A01 T01980135  RH  067%=      5-min Rain = 0
KHO1 111116Z 14003KT 20/13 A3017 RMK A01 T01990134  RH  066%=      5-min Rain = 0
KHO1 111117Z 14003KT 20/13 A3017 RMK A01 T01990134  RH  066%=      5-min Rain = 0
KHO1 111118Z 14004KT 20/13 A3017 RMK A01 T02000133  RH  065%=      5-min Rain = 0
KHO1 111119Z 14004KT 20/13 A3017 RMK A01 T02010133  RH  065%=      5-min Rain = 0
KHO1 111120Z 14004KT 20/13 A3017 RMK A01 T02010132  RH  064%=      5-min Rain = 0
KHO1 111121Z 14004KT 20/13 A3017 RMK A01 T02020134  RH  065%=      5-min Rain = 0
KHO1 111122Z 14004KT 20/13 A3017 RMK A01 T02020134  RH  065%=      5-min Rain = 0
KHO1 111123Z 14004KT 20/13 A3017 RMK A01 T02010134  RH  065%=      5-min Rain = 0
KHO1 111124Z 14004KT 20/13 A3017 RMK A01 T02010134  RH  065%=      5-min Rain = 0
KHO1 111125Z 14004KT 20/13 A3017 RMK A01 T02010134  RH  065%=      5-min Rain = 0
KHO1 111126Z 14004KT 20/13 A3017 RMK A01 T02010134  RH  065%=      5-min Rain = 0
KHO1 111127Z 14004KT 20/13 A3017 RMK A01 T02010134  RH  065%=      5-min Rain = 0
KHO1 111128Z 13004KT 20/14 A3017 RMK A01 T02010135  RH  066%=      5-min Rain = 0
KHO1 111129Z 13004KT 20/13 A3017 RMK A01 T02010134  RH  066%=      5-min Rain = 0
KHO1 111130Z 13004KT 20/13 A3018 RMK A01 T02010134  RH  066%=      5-min Rain = 0
KHO1 111131Z 13004KT 20/13 A3018 RMK A01 T02010134  RH  065%=      5-min Rain = 0
KHO1 111132Z 13004KT 20/13 A3018 RMK A01 T02010134  RH  065%=      5-min Rain = 0
KHO1 111133Z 13004KT 20/13 A3018 RMK A01 T02010133  RH  065%=      5-min Rain = 0
KHO1 111134Z 13004KT 20/13 A3018 RMK A01 T02020133  RH  064%=      5-min Rain = 0
KHO1 111135Z 13004KT 20/13 A3018 RMK A01 T02020134  RH  065%=      5-min Rain = 0
KHO1 111136Z 13004KT 20/13 A3018 RMK A01 T02020133  RH  065%=      5-min Rain = 0
KHO1 111137Z 13004KT 20/13 A3018 RMK A01 T02020133  RH  065%=      5-min Rain = 0
KHO1 111138Z 13004KT 20/13 A3018 RMK A01 T02010134  RH  065%=      5-min Rain = 0
KHO1 111139Z 13004KT 20/13 A3018 RMK A01 T02010134  RH  065%=      5-min Rain = 0
KHO1 111140Z 13004KT 20/13 A3018 RMK A01 T02000133  RH  065%=      5-min Rain = 0
KHO1 111141Z 13004KT 20/13 A3018 RMK A01 T02000134  RH  065%=      5-min Rain = 0
KHO1 111142Z 13004KT 20/13 A3018 RMK A01 T02000133  RH  065%=      5-min Rain = 0
KHO1 111143Z 13004KT 20/13 A3018 RMK A01 T02010133  RH  065%=      5-min Rain = 0
KHO1 111144Z 13004KT 20/13 A3018 RMK A01 T02010134  RH  065%=      5-min Rain = 0
KHO1 111145Z 13004KT 20/13 A3018 RMK A01 T02000133  RH  065%=      5-min Rain = 0
KHO1 111146Z 13004KT 20/13 A3018 RMK A01 T02000134  RH  065%=      5-min Rain = 0
KHO1 111147Z 13004KT 20/13 A3018 RMK A01 T02000133  RH  065%=      5-min Rain = 0
KHO1 111148Z 12004KT 20/13 A3018 RMK A01 T02000133  RH  065%=      5-min Rain = 0
KHO1 111149Z 12004KT 20/13 A3018 RMK A01 T02010133  RH  065%=      5-min Rain = 0
KHO1 111150Z 12004KT 20/13 A3018 RMK A01 T02010133  RH  065%=      5-min Rain = 0
KHO1 111151Z 12004KT 20/13 A3018 RMK A01 T02020133  RH  065%=      5-min Rain = 0
KHO1 111152Z 12004KT 20/13 A3018 RMK A01 T02020134  RH  065%=      5-min Rain = 0
KHO1 111153Z 12004KT 20/13 A3018 RMK A01 T02010133  RH  065%=      5-min Rain = 0
KHO1 111154Z 12004KT 20/13 A3018 RMK A01 T02020134  RH  065%=      5-min Rain = 0
KHO1 111155Z 12004KT 20/13 A3018 RMK A01 T02020134  RH  065%=      5-min Rain = 0
KHO1 111156Z 12004KT 20/13 A3018 RMK A01 T02020134  RH  065%=      5-min Rain = 0
KHO1 111157Z 10002KT 20/13 A3018 RMK A01 T02020134  RH  065%=      5-min Rain = 0
KHO1 111158Z 07002KT 20/14 A3018 RMK A01 T02020135  RH  065%=      5-min Rain = 0
KHO1 111159Z 09002KT 20/14 A3019 RMK A01 T02020136  RH  066%=      5-min Rain = 0
KHO1 111200Z 08002KT 20/14 A3019 RMK A01 T02010136  RH  066%=      5-min Rain = 0
KHO1 111201Z 07002KT 20/14 A3019 RMK A01 T02010137  RH  067%=      5-min Rain = 0
KHO1 111202Z 08002KT 20/14 A3019 RMK A01 T02000137  RH  067%=      5-min Rain = 0
KHO1 111203Z 09002KT 20/14 A3019 RMK A01 T01990138  RH  068%=      5-min Rain = 0
KHO1 111204Z 11003KT 20/14 A3019 RMK A01 T01990138  RH  068%=      5-min Rain = 0
KHO1 111205Z 10003KT 20/14 A3019 RMK A01 T01980138  RH  068%=      5-min Rain = 0
KHO1 111206Z 10002KT 20/14 A3019 RMK A01 T01980138  RH  069%=      5-min Rain = 0
KHO1 111207Z 11003KT 20/14 A3019 RMK A01 T01970140  RH  069%=      5-min Rain = 0
KHO1 111208Z 11004KT 20/14 A3019 RMK A01 T01960139  RH  070%=      5-min Rain = 0
KHO1 111209Z 11003KT 20/14 A3019 RMK A01 T01950139  RH  070%=      5-min Rain = 0
KHO1 111210Z 11003KT 20/14 A3019 RMK A01 T01950139  RH  070%=      5-min Rain = 0
KHO1 111211Z 11004KT 20/14 A3019 RMK A01 T01950138  RH  070%=      5-min Rain = 0
KHO1 111212Z 11003KT 20/14 A3019 RMK A01 T01950138  RH  070%=      5-min Rain = 0
KHO1 111213Z 11003KT 20/14 A3019 RMK A01 T01950139  RH  070%=      5-min Rain = 0
KHO1 111214Z 12003KT 20/14 A3019 RMK A01 T01950139  RH  070%=      5-min Rain = 0
KHO1 111215Z 12003KT 20/14 A3019 RMK A01 T01950139  RH  070%=      5-min Rain = 0
KHO1 111216Z 11003KT 20/14 A3019 RMK A01 T01950139  RH  070%=      5-min Rain = 0
KHO1 111217Z 11003KT 20/14 A3019 RMK A01 T01950140  RH  071%=      5-min Rain = 0
KHO1 111218Z 12003KT 20/14 A3019 RMK A01 T01950140  RH  071%=      5-min Rain = 0
KHO1 111219Z 12003KT 19/14 A3019 RMK A01 T01940140  RH  071%=      5-min Rain = 0
KHO1 111220Z 13003KT 19/14 A3019 RMK A01 T01940140  RH  071%=      5-min Rain = 0
KHO1 111221Z 13004KT 20/14 A3019 RMK A01 T01950140  RH  071%=      5-min Rain = 0
KHO1 111222Z 13003KT 20/14 A3019 RMK A01 T01950140  RH  071%=      5-min Rain = 0
KHO1 111223Z 14004KT 20/14 A3019 RMK A01 T01950140  RH  070%=      5-min Rain = 0
KHO1 111224Z 14004KT 20/14 A3019 RMK A01 T01960141  RH  070%=      5-min Rain = 0
KHO1 111225Z 14004KT 20/14 A3019 RMK A01 T01960142  RH  071%=      5-min Rain = 0
KHO1 111226Z 14004KT 20/14 A3019 RMK A01 T01960141  RH  070%=      5-min Rain = 0
KHO1 111227Z 14004KT 20/14 A3019 RMK A01 T01970141  RH  070%=      5-min Rain = 0
KHO1 111228Z 14004KT 20/14 A3019 RMK A01 T01980142  RH  070%=      5-min Rain = 0
KHO1 111229Z 14004KT 20/14 A3019 RMK A01 T01980141  RH  070%=      5-min Rain = 0
KHO1 111230Z 14004KT 20/14 A3019 RMK A01 T01980141  RH  069%=      5-min Rain = 0
KHO1 111231Z 14004KT 20/14 A3019 RMK A01 T01990140  RH  069%=      5-min Rain = 0
KHO1 111232Z 14005KT 20/14 A3019 RMK A01 T02000140  RH  068%=      5-min Rain = 0
KHO1 111233Z 14005KT 20/14 A3019 RMK A01 T02000140  RH  068%=      5-min Rain = 0
KHO1 111234Z 14004KT 20/14 A3019 RMK A01 T02010139  RH  068%=      5-min Rain = 0
KHO1 111235Z 14005KT 20/14 A3019 RMK A01 T02010140  RH  068%=      5-min Rain = 0
KHO1 111236Z 14005KT 20/14 A3019 RMK A01 T02010140  RH  068%=      5-min Rain = 0
KHO1 111237Z 14005KT 20/14 A3019 RMK A01 T02010139  RH  068%=      5-min Rain = 0
KHO1 111238Z 15005KT 20/14 A3019 RMK A01 T02010139  RH  067%=      5-min Rain = 0
KHO1 111239Z 15005KT 20/14 A3019 RMK A01 T02010140  RH  068%=      5-min Rain = 0
KHO1 111240Z 15005KT 20/14 A3019 RMK A01 T02010140  RH  068%=      5-min Rain = 0
KHO1 111241Z 15006KT 20/14 A3019 RMK A01 T02010140  RH  067%=      5-min Rain = 0
KHO1 111242Z 15005KT 20/14 A3019 RMK A01 T02020139  RH  067%=      5-min Rain = 0
KHO1 111243Z 15006KT 20/14 A3019 RMK A01 T02020139  RH  067%=      5-min Rain = 0
KHO1 111244Z 15006KT 20/14 A3019 RMK A01 T02020139  RH  067%=      5-min Rain = 0
KHO1 111245Z 15005KT 20/14 A3019 RMK A01 T02030140  RH  067%=      5-min Rain = 0
KHO1 111246Z 15005KT 20/14 A3019 RMK A01 T02030140  RH  067%=      5-min Rain = 0
KHO1 111247Z 15005KT 20/14 A3019 RMK A01 T02040141  RH  067%=      5-min Rain = 0
KHO1 111248Z 15005KT 20/14 A3019 RMK A01 T02040142  RH  067%=      5-min Rain = 0
KHO1 111249Z 15005KT 21/14 A3019 RMK A01 T02050141  RH  067%=      5-min Rain = 0
KHO1 111250Z 15005KT 21/14 A3019 RMK A01 T02050141  RH  066%=      5-min Rain = 0
KHO1 111251Z 15005KT 21/14 A3019 RMK A01 T02060141  RH  066%=      5-min Rain = 0
KHO1 111252Z 15005KT 21/14 A3019 RMK A01 T02060142  RH  067%=      5-min Rain = 0
KHO1 111253Z 15007KT 21/14 A3019 RMK A01 T02060141  RH  066%=      5-min Rain = 0
KHO1 111254Z 15006KT 21/14 A3019 RMK A01 T02070139  RH  065%=      5-min Rain = 0
KHO1 111255Z 16006KT 21/14 A3019 RMK A01 T02070141  RH  066%=      5-min Rain = 0
KHO1 111256Z 15007KT 21/14 A3019 RMK A01 T02070140  RH  065%=      5-min Rain = 0
KHO1 111257Z 15008KT 21/14 A3019 RMK A01 T02080139  RH  065%=      5-min Rain = 0
KHO1 111258Z 16006KT 21/14 A3019 RMK A01 T02080139  RH  065%=      5-min Rain = 0
KHO1 111259Z 15006KT 21/14 A3019 RMK A01 T02080140  RH  065%=      5-min Rain = 0
KHO1 111300Z 15007KT 21/14 A3019 RMK A01 T02080142  RH  066%=      5-min Rain = 0
KHO1 111301Z 16007KT 21/14 A3019 RMK A01 T02080140  RH  065%=      5-min Rain = 0
KHO1 111302Z 16007KT 21/14 A3019 RMK A01 T02090141  RH  065%=      5-min Rain = 0
KHO1 111303Z 16008KT 21/14 A3019 RMK A01 T02090140  RH  065%=      5-min Rain = 0
KHO1 111304Z 15007KT 21/14 A3019 RMK A01 T02090141  RH  065%=      5-min Rain = 0
KHO1 111305Z 15007KT 21/14 A3019 RMK A01 T02090142  RH  065%=      5-min Rain = 0
KHO1 111306Z 15006KT 21/14 A3019 RMK A01 T02090142  RH  065%=      5-min Rain = 0
KHO1 111307Z 15006KT 21/14 A3019 RMK A01 T02090142  RH  065%=      5-min Rain = 0
KHO1 111308Z 16007KT 21/14 A3019 RMK A01 T02100141  RH  065%=      5-min Rain = 0
KHO1 111309Z 16007KT 21/14 A3019 RMK A01 T02100141  RH  065%=      5-min Rain = 0
KHO1 111310Z 16007KT 21/14 A3019 RMK A01 T02100141  RH  065%=      5-min Rain = 0
KHO1 111311Z 16007KT 21/14 A3019 RMK A01 T02100141  RH  065%=      5-min Rain = 0
KHO1 111312Z 16008KT 21/14 A3019 RMK A01 T02110141  RH  064%=      5-min Rain = 0
KHO1 111313Z 16008KT 21/14 A3019 RMK A01 T02110141  RH  064%=      5-min Rain = 0
KHO1 111314Z 16008KT 21/14 A3019 RMK A01 T02110141  RH  064%=      5-min Rain = 0
KHO1 111315Z 16009KT 21/14 A3019 RMK A01 T02110141  RH  064%=      5-min Rain = 0
KHO1 111316Z 16008KT 21/14 A3019 RMK A01 T02110141  RH  064%=      5-min Rain = 0
KHO1 111317Z 16007KT 21/14 A3019 RMK A01 T02110142  RH  064%=      5-min Rain = 0
KHO1 111318Z 16008KT 21/14 A3019 RMK A01 T02110142  RH  064%=      5-min Rain = 0
KHO1 111319Z 17007KT 21/14 A3019 RMK A01 T02110142  RH  064%=      5-min Rain = 0
KHO1 111320Z 16006KT 21/14 A3019 RMK A01 T02120143  RH  065%=      5-min Rain = 0
KHO1 111321Z 16008KT 21/14 A3019 RMK A01 T02120141  RH  064%=      5-min Rain = 0
KHO1 111322Z 16008KT 21/14 A3019 RMK A01 T02120142  RH  064%=      5-min Rain = 0
KHO1 111323Z 16008KT 21/14 A3019 RMK A01 T02120142  RH  064%=      5-min Rain = 0
KHO1 111324Z 17008KT 21/14 A3019 RMK A01 T02120141  RH  064%=      5-min Rain = 0
KHO1 111325Z 17007KT 21/14 A3019 RMK A01 T02120142  RH  064%=      5-min Rain = 0
KHO1 111326Z 17007KT 21/14 A3019 RMK A01 T02130143  RH  064%=      5-min Rain = 0
KHO1 111327Z 16008KT 21/14 A3019 RMK A01 T02130142  RH  064%=      5-min Rain = 0
KHO1 111328Z 17007KT 21/14 A3019 RMK A01 T02130142  RH  064%=      5-min Rain = 0
KHO1 111329Z 16008KT 21/14 A3019 RMK A01 T02130142  RH  064%=      5-min Rain = 0
KHO1 111330Z 16007KT 21/14 A3019 RMK A01 T02130143  RH  064%=      5-min Rain = 0
KHO1 111331Z 17007KT 21/14 A3019 RMK A01 T02130143  RH  064%=      5-min Rain = 0
KHO1 111332Z 16008KT 21/14 A302 RMK A01 T02130144  RH  064%=      5-min Rain = 0
KHO1 111333Z 16009KT 21/14 A3019 RMK A01 T02140143  RH  064%=      5-min Rain = 0
KHO1 111334Z 16009KT 21/14 A3019 RMK A01 T02140144  RH  064%=      5-min Rain = 0
KHO1 111335Z 17008KT 21/14 A3019 RMK A01 T02140143  RH  064%=      5-min Rain = 0
KHO1 111336Z 17010KT 21/14 A3019 RMK A01 T02140143  RH  064%=      5-min Rain = 0
KHO1 111337Z 17009KT 21/14 A3019 RMK A01 T02140143  RH  064%=      5-min Rain = 0
KHO1 111338Z 16009KT 22/14 A302 RMK A01 T02150144  RH  064%=      5-min Rain = 0
KHO1 111339Z 16010KT 22/15 A3019 RMK A01 T02150145  RH  064%=      5-min Rain = 0
KHO1 111340Z 17009KT 22/14 A3019 RMK A01 T02150144  RH  064%=      5-min Rain = 0
KHO1 111341Z 17009KT 22/14 A3019 RMK A01 T02150144  RH  064%=      5-min Rain = 0
KHO1 111342Z 16010KT 22/14 A3019 RMK A01 T02160144  RH  064%=      5-min Rain = 0
KHO1 111343Z 16010KT 22/14 A3019 RMK A01 T02160144  RH  063%=      5-min Rain = 0
KHO1 111344Z 17009KT 22/14 A3019 RMK A01 T02170144  RH  063%=      5-min Rain = 0
KHO1 111345Z 17010KT 22/14 A3019 RMK A01 T02170144  RH  063%=      5-min Rain = 0
KHO1 111346Z 17010KT 22/14 A3019 RMK A01 T02170143  RH  063%=      5-min Rain = 0
KHO1 111347Z 17009KT 22/15 A3019 RMK A01 T02170145  RH  063%=      5-min Rain = 0
KHO1 111348Z 17008KT 22/15 A3019 RMK A01 T02180145  RH  063%=      5-min Rain = 0
KHO1 111349Z 17006KT 22/15 A3019 RMK A01 T02180146  RH  063%=      5-min Rain = 0
KHO1 111350Z 17006KT 22/15 A3019 RMK A01 T02190147  RH  064%=      5-min Rain = 0
KHO1 111351Z 17008KT 22/15 A3019 RMK A01 T02190145  RH  062%=      5-min Rain = 0
KHO1 111352Z 16009KT 22/15 A3019 RMK A01 T02200145  RH  062%=      5-min Rain = 0
KHO1 111353Z 17009KT 22/15 A3019 RMK A01 T02200145  RH  062%=      5-min Rain = 0
KHO1 111354Z 17009KT 22/14 A302 RMK A01 T02200144  RH  062%=      5-min Rain = 0
KHO1 111355Z 17010KT 22/15 A302 RMK A01 T02210145  RH  062%=      5-min Rain = 0
KHO1 111356Z 17011KT 22/14 A302 RMK A01 T02220144  RH  061%=      5-min Rain = 0
KHO1 111357Z 17009KT 22/15 A302 RMK A01 T02220145  RH  062%=      5-min Rain = 0
KHO1 111358Z 18010KT 22/15 A302 RMK A01 T02230146  RH  062%=      5-min Rain = 0
KHO1 111359Z 16009KT 22/15 A302 RMK A01 T02240148  RH  062%=      5-min Rain = 0
KHO1 111400Z 17007KT 23/15 A302 RMK A01 T02250148  RH  062%=      5-min Rain = 0
KHO1 111401Z 17010KT 23/15 A302 RMK A01 T02260146  RH  060%=      5-min Rain = 0
KHO1 111402Z 17009KT 23/14 A302 RMK A01 T02270144  RH  060%=      5-min Rain = 0
KHO1 111403Z 17009KT 23/14 A302 RMK A01 T02280144  RH  059%=      5-min Rain = 0
KHO1 111404Z 16010KT 23/14 A302 RMK A01 T02290144  RH  059%=      5-min Rain = 0
KHO1 111405Z 17010KT 23/14 A302 RMK A01 T02290144  RH  059%=      5-min Rain = 0
KHO1 111406Z 17010KT 23/15 A302 RMK A01 T02300145  RH  059%=      5-min Rain = 0
KHO1 111407Z 17011KT 23/14 A302 RMK A01 T02310144  RH  058%=      5-min Rain = 0
KHO1 111408Z 17012KT 23/14 A302 RMK A01 T02300142  RH  058%=      5-min Rain = 0
KHO1 111409Z 18012KT 23/14 A302 RMK A01 T02300141  RH  057%=      5-min Rain = 0
KHO1 111410Z 17009KT 23/14 A302 RMK A01 T02300144  RH  058%=      5-min Rain = 0
KHO1 111411Z 17009KT 23/15 A302 RMK A01 T02300145  RH  059%=      5-min Rain = 0
KHO1 111412Z 17010KT 23/14 A302 RMK A01 T02300144  RH  058%=      5-min Rain = 0
KHO1 111413Z 17008KT 23/15 A302 RMK A01 T02310145  RH  058%=      5-min Rain = 0
KHO1 111414Z 18012KT 23/14 A302 RMK A01 T02310142  RH  057%=      5-min Rain = 0
KHO1 111415Z 17012KT 23/14 A302 RMK A01 T02300142  RH  057%=      5-min Rain = 0
KHO1 111416Z 18012KT 23/14 A302 RMK A01 T02300142  RH  057%=      5-min Rain = 0
KHO1 111417Z 17012KT 23/14 A302 RMK A01 T02310142  RH  057%=      5-min Rain = 0
KHO1 111418Z 17012KT 23/14 A302 RMK A01 T02310141  RH  057%=      5-min Rain = 0
KHO1 111419Z 18011KT 23/14 A302 RMK A01 T02310142  RH  057%=      5-min Rain = 0
KHO1 111420Z 18011KT 23/14 A302 RMK A01 T02310143  RH  058%=      5-min Rain = 0
KHO1 111421Z 18010KT 23/14 A302 RMK A01 T02320144  RH  058%=      5-min Rain = 0
KHO1 111422Z 17011KT 23/14 A302 RMK A01 T02320143  RH  057%=      5-min Rain = 0
KHO1 111423Z 18011KT 23/14 A302 RMK A01 T02320142  RH  057%=      5-min Rain = 0
KHO1 111424Z 18011KT 23/14 A302 RMK A01 T02330143  RH  057%=      5-min Rain = 0
KHO1 111425Z 19011KT 23/15 A302 RMK A01 T02330145  RH  058%=      5-min Rain = 0
KHO1 111426Z 18010KT 23/15 A302 RMK A01 T02340146  RH  058%=      5-min Rain = 0
KHO1 111427Z 18012KT 23/14 A302 RMK A01 T02330143  RH  057%=      5-min Rain = 0
KHO1 111428Z 18010KT 23/15 A302 RMK A01 T02330145  RH  058%=      5-min Rain = 0
KHO1 111429Z 17009KT 23/15 A302 RMK A01 T02340147  RH  058%=      5-min Rain = 0
KHO1 111430Z 17008KT 24/15 A302 RMK A01 T02360149  RH  058%=      5-min Rain = 0
KHO1 111431Z 18010KT 24/15 A302 RMK A01 T02370147  RH  057%=      5-min Rain = 0
KHO1 111432Z 17011KT 24/15 A302 RMK A01 T02360145  RH  057%=      5-min Rain = 0
KHO1 111433Z 17011KT 24/15 A302 RMK A01 T02350145  RH  057%=      5-min Rain = 0
KHO1 111434Z 17011KT 23/14 A302 RMK A01 T02330144  RH  057%=      5-min Rain = 0
KHO1 111435Z 17010KT 23/15 A302 RMK A01 T02330145  RH  058%=      5-min Rain = 0
KHO1 111436Z 18009KT 23/15 A302 RMK A01 T02330147  RH  058%=      5-min Rain = 0
KHO1 111437Z 18009KT 23/15 A302 RMK A01 T02330147  RH  058%=      5-min Rain = 0
KHO1 111438Z 17011KT 23/15 A302 RMK A01 T02330146  RH  058%=      5-min Rain = 0
KHO1 111439Z 17011KT 23/15 A302 RMK A01 T02330146  RH  058%=      5-min Rain = 0
KHO1 111440Z 18010KT 23/15 A302 RMK A01 T02330146  RH  058%=      5-min Rain = 0
KHO1 111441Z 19012KT 23/15 A302 RMK A01 T02340147  RH  058%=      5-min Rain = 0
KHO1 111442Z 19012KT 23/15 A302 RMK A01 T02340146  RH  058%=      5-min Rain = 0
KHO1 111443Z 19010KT 24/15 A302 RMK A01 T02360150  RH  059%=      5-min Rain = 0
KHO1 111444Z 19010KT 24/15 A302 RMK A01 T02380150  RH  058%=      5-min Rain = 0
KHO1 111445Z 19011KT 24/15 A302 RMK A01 T02370147  RH  057%=      5-min Rain = 0
KHO1 111446Z 19012KT 24/15 A302 RMK A01 T02370145  RH  056%=      5-min Rain = 0
KHO1 111447Z 18011KT 24/14 A302 RMK A01 T02350144  RH  057%=      5-min Rain = 0
KHO1 111448Z 17012KT 24/15 A302 RMK A01 T02350146  RH  057%=      5-min Rain = 0
KHO1 111449Z 16012KT 24/15 A302 RMK A01 T02360146  RH  057%=      5-min Rain = 0
KHO1 111450Z 17011KT 24/15 A302 RMK A01 T02360146  RH  057%=      5-min Rain = 0
KHO1 111451Z 17012KT 24/14 A302 RMK A01 T02350144  RH  057%=      5-min Rain = 0
KHO1 111452Z 17011KT 23/14 A302 RMK A01 T02340144  RH  057%=      5-min Rain = 0
KHO1 111453Z 17010KT 23/15 A302 RMK A01 T02330145  RH  058%=      5-min Rain = 0
KHO1 111454Z 18010KT 23/15 A302 RMK A01 T02330146  RH  058%=      5-min Rain = 0
KHO1 111455Z 18009KT 24/15 A302 RMK A01 T02350150  RH  059%=      5-min Rain = 0
KHO1 111456Z 19009KT 24/15 A302 RMK A01 T02370148  RH  057%=      5-min Rain = 0
KHO1 111457Z 18008KT 24/15 A302 RMK A01 T02380149  RH  057%=      5-min Rain = 0
KHO1 111458Z 17008KT 24/15 A302 RMK A01 T02380150  RH  058%=      5-min Rain = 0
KHO1 111459Z 19008KT 24/15 A302 RMK A01 T02390150  RH  057%=      5-min Rain = 0
KHO1 111500Z 19011KT 24/14 A302 RMK A01 T02380144  RH  056%=      5-min Rain = 0
KHO1 111501Z 19010KT 24/15 A302 RMK A01 T02370146  RH  056%=      5-min Rain = 0
KHO1 111502Z 19009KT 24/15 A302 RMK A01 T02380147  RH  057%=      5-min Rain = 0
KHO1 111503Z 18010KT 24/15 A302 RMK A01 T02390146  RH  056%=      5-min Rain = 0
KHO1 111504Z 18010KT 24/15 A302 RMK A01 T02370147  RH  057%=      5-min Rain = 0
KHO1 111505Z 18008KT 24/15 A302 RMK A01 T02380149  RH  057%=      5-min Rain = 0
KHO1 111506Z 19010KT 24/15 A302 RMK A01 T02410151  RH  057%=      5-min Rain = 0
KHO1 111507Z 19010KT 24/15 A302 RMK A01 T02410146  RH  056%=      5-min Rain = 0
KHO1 111508Z 19009KT 24/15 A302 RMK A01 T02410149  RH  056%=      5-min Rain = 0
KHO1 111509Z 18008KT 24/15 A302 RMK A01 T02440151  RH  056%=      5-min Rain = 0
KHO1 111510Z 17007KT 25/15 A302 RMK A01 T02460151  RH  056%=      5-min Rain = 0
KHO1 111511Z 17007KT 25/15 A302 RMK A01 T02460150  RH  055%=      5-min Rain = 0
KHO1 111512Z 17010KT 25/15 A302 RMK A01 T02460148  RH  054%=      5-min Rain = 0
KHO1 111513Z 17009KT 24/15 A302 RMK A01 T02440147  RH  054%=      5-min Rain = 0
KHO1 111514Z 16008KT 24/15 A302 RMK A01 T02440150  RH  056%=      5-min Rain = 0
KHO1 111515Z 16008KT 25/15 A302 RMK A01 T02460153  RH  056%=      5-min Rain = 0
KHO1 111516Z 17010KT 25/15 A302 RMK A01 T02470151  RH  055%=      5-min Rain = 0
KHO1 111517Z 17010KT 25/15 A302 RMK A01 T02460148  RH  054%=      5-min Rain = 0
KHO1 111518Z 18009KT 25/15 A302 RMK A01 T02460149  RH  055%=      5-min Rain = 0
KHO1 111519Z 18009KT 25/15 A302 RMK A01 T02470149  RH  055%=      5-min Rain = 0
KHO1 111520Z 19011KT 25/15 A302 RMK A01 T02470148  RH  054%=      5-min Rain = 0
KHO1 111521Z 18011KT 25/15 A302 RMK A01 T02470147  RH  054%=      5-min Rain = 0
KHO1 111522Z 18010KT 25/15 A302 RMK A01 T02480146  RH  053%=      5-min Rain = 0
KHO1 111523Z 19010KT 25/15 A302 RMK A01 T02480146  RH  053%=      5-min Rain = 0
KHO1 111524Z 19009KT 25/15 A302 RMK A01 T02480148  RH  054%=      5-min Rain = 0
KHO1 111525Z 19009KT 25/15 A302 RMK A01 T02500149  RH  054%=      5-min Rain = 0
KHO1 111526Z 19009KT 25/15 A302 RMK A01 T02510149  RH  053%=      5-min Rain = 0
KHO1 111527Z 18011KT 25/15 A302 RMK A01 T02510147  RH  052%=      5-min Rain = 0
KHO1 111528Z 18011KT 25/15 A302 RMK A01 T02500145  RH  052%=      5-min Rain = 0
KHO1 111529Z 19010KT 25/14 A302 RMK A01 T02480144  RH  052%=      5-min Rain = 0
KHO1 111530Z 19009KT 25/15 A302 RMK A01 T02480147  RH  053%=      5-min Rain = 0
KHO1 111531Z 19007KT 25/15 A302 RMK A01 T02480149  RH  054%=      5-min Rain = 0
KHO1 111532Z 18010KT 25/15 A302 RMK A01 T02490147  RH  053%=      5-min Rain = 0
KHO1 111533Z 19007KT 25/15 A302 RMK A01 T02490150  RH  054%=      5-min Rain = 0
KHO1 111534Z 19009KT 25/15 A302 RMK A01 T02500148  RH  053%=      5-min Rain = 0
KHO1 111535Z 19007KT 25/15 A302 RMK A01 T02500146  RH  053%=      5-min Rain = 0
KHO1 111536Z 19011KT 25/15 A302 RMK A01 T02500145  RH  052%=      5-min Rain = 0
KHO1 111537Z 19008KT 25/14 A302 RMK A01 T02500144  RH  052%=      5-min Rain = 0
KHO1 111538Z 19010KT 25/15 A302 RMK A01 T02500147  RH  053%=      5-min Rain = 0
KHO1 111539Z 17010KT 25/15 A302 RMK A01 T02510146  RH  052%=      5-min Rain = 0
KHO1 111540Z 18010KT 25/15 A302 RMK A01 T02510146  RH  052%=      5-min Rain = 0
KHO1 111541Z 17009KT 25/15 A302 RMK A01 T02510148  RH  053%=      5-min Rain = 0
KHO1 111542Z 19009KT 25/15 A302 RMK A01 T02520148  RH  053%=      5-min Rain = 0
KHO1 111543Z 18009KT 25/15 A302 RMK A01 T02520150  RH  053%=      5-min Rain = 0
KHO1 111544Z 18010KT 25/15 A302 RMK A01 T02510145  RH  052%=      5-min Rain = 0
KHO1 111545Z 18008KT 25/15 A302 RMK A01 T02500148  RH  053%=      5-min Rain = 0
KHO1 111546Z 18007KT 25/15 A302 RMK A01 T02510152  RH  054%=      5-min Rain = 0
KHO1 111547Z 17011KT 25/15 A302 RMK A01 T02530148  RH  052%=      5-min Rain = 0
KHO1 111548Z 18009KT 25/15 A302 RMK A01 T02520147  RH  052%=      5-min Rain = 0
KHO1 111549Z 18008KT 25/15 A302 RMK A01 T02520149  RH  052%=      5-min Rain = 0
KHO1 111550Z 19009KT 25/15 A302 RMK A01 T02540151  RH  053%=      5-min Rain = 0
KHO1 111551Z 18011KT 25/15 A302 RMK A01 T02540149  RH  052%=      5-min Rain = 0
KHO1 111552Z 19007KT 25/15 A302 RMK A01 T02530151  RH  053%=      5-min Rain = 0
KHO1 111553Z 19010KT 25/15 A302 RMK A01 T02540150  RH  052%=      5-min Rain = 0
KHO1 111554Z 19009KT 25/15 A302 RMK A01 T02540148  RH  052%=      5-min Rain = 0
KHO1 111555Z 20009KT 25/15 A302 RMK A01 T02540148  RH  052%=      5-min Rain = 0
KHO1 111556Z 20010KT 25/15 A302 RMK A01 T02530147  RH  052%=      5-min Rain = 0
KHO1 111557Z 18008KT 25/15 A302 RMK A01 T02540149  RH  052%=      5-min Rain = 0
KHO1 111558Z 18009KT 25/15 A302 RMK A01 T02530147  RH  052%=      5-min Rain = 0
KHO1 111559Z 18007KT 25/15 A302 RMK A01 T02530150  RH  053%=      5-min Rain = 0
KHO1 111600Z 19007KT 25/15 A302 RMK A01 T02540152  RH  053%=      5-min Rain = 0
KHO1 111601Z 19008KT 26/15 A302 RMK A01 T02550149  RH  052%=      5-min Rain = 0
KHO1 111602Z 19008KT 26/15 A302 RMK A01 T02550148  RH  052%=      5-min Rain = 0
KHO1 111603Z 19009KT 26/15 A302 RMK A01 T02550149  RH  052%=      5-min Rain = 0
KHO1 111604Z 19010KT 26/15 A302 RMK A01 T02550147  RH  051%=      5-min Rain = 0
KHO1 111605Z 18007KT 25/15 A302 RMK A01 T02530145  RH  051%=      5-min Rain = 0
KHO1 111606Z 18008KT 25/15 A302 RMK A01 T02540149  RH  052%=      5-min Rain = 0
KHO1 111607Z 18010KT 25/15 A302 RMK A01 T02540147  RH  052%=      5-min Rain = 0
KHO1 111608Z 18009KT 25/15 A302 RMK A01 T02540145  RH  051%=      5-min Rain = 0
KHO1 111609Z 18009KT 25/14 A302 RMK A01 T02540143  RH  050%=      5-min Rain = 0
KHO1 111610Z 18009KT 25/15 A302 RMK A01 T02540145  RH  051%=      5-min Rain = 0
KHO1 111611Z 18009KT 26/15 A302 RMK A01 T02550147  RH  051%=      5-min Rain = 0
KHO1 111612Z 17010KT 26/15 A302 RMK A01 T02560148  RH  051%=      5-min Rain = 0
KHO1 111613Z 17010KT 26/15 A302 RMK A01 T02560145  RH  050%=      5-min Rain = 0
KHO1 111614Z 18008KT 26/15 A3019 RMK A01 T02560148  RH  051%=      5-min Rain = 0
KHO1 111615Z 17009KT 26/15 A302 RMK A01 T02590153  RH  052%=      5-min Rain = 0
KHO1 111616Z 17009KT 26/15 A3019 RMK A01 T02600149  RH  050%=      5-min Rain = 0
KHO1 111617Z 17009KT 26/15 A302 RMK A01 T02610150  RH  050%=      5-min Rain = 0
KHO1 111618Z 17007KT 26/15 A302 RMK A01 T02620151  RH  050%=      5-min Rain = 0
KHO1 111619Z 17008KT 26/15 A3019 RMK A01 T02630149  RH  050%=      5-min Rain = 0
KHO1 111620Z 16009KT 26/15 A3019 RMK A01 T02640151  RH  050%=      5-min Rain = 0
KHO1 111621Z 17009KT 27/15 A3019 RMK A01 T02650151  RH  049%=      5-min Rain = 0
KHO1 111622Z 18010KT 27/15 A3019 RMK A01 T02660147  RH  048%=      5-min Rain = 0
KHO1 111623Z 17007KT 26/15 A3019 RMK A01 T02640148  RH  049%=      5-min Rain = 0
KHO1 111624Z 19006KT 26/15 A3019 RMK A01 T02640150  RH  050%=      5-min Rain = 0
KHO1 111625Z 18008KT 27/15 A3019 RMK A01 T02660151  RH  049%=      5-min Rain = 0
KHO1 111626Z 16008KT 27/15 A3019 RMK A01 T02670149  RH  048%=      5-min Rain = 0
KHO1 111627Z 16010KT 27/15 A3019 RMK A01 T02690149  RH  048%=      5-min Rain = 0
KHO1 111628Z 15009KT 27/15 A3019 RMK A01 T02690148  RH  048%=      5-min Rain = 0
KHO1 111629Z 17010KT 27/15 A3019 RMK A01 T02690147  RH  047%=      5-min Rain = 0
KHO1 111630Z 19007KT 27/15 A3019 RMK A01 T02710153  RH  049%=      5-min Rain = 0
KHO1 111631Z 19008KT 27/15 A3019 RMK A01 T02740152  RH  047%=      5-min Rain = 0
KHO1 111632Z 18009KT 27/15 A3019 RMK A01 T02730145  RH  045%=      5-min Rain = 0
KHO1 111633Z 19010KT 27/15 A3019 RMK A01 T02730148  RH  046%=      5-min Rain = 0
KHO1 111634Z 18010KT 27/14 A3019 RMK A01 T02700144  RH  046%=      5-min Rain = 0
KHO1 111635Z 18009KT 27/15 A3019 RMK A01 T02700145  RH  046%=      5-min Rain = 0
KHO1 111636Z 17008KT 27/14 A3019 RMK A01 T02690143  RH  046%=      5-min Rain = 0
KHO1 111637Z 18008KT 27/14 A3019 RMK A01 T02690143  RH  046%=      5-min Rain = 0
KHO1 111638Z 18009KT 27/15 A3019 RMK A01 T02690147  RH  047%=      5-min Rain = 0
KHO1 111639Z 18010KT 27/15 A3019 RMK A01 T02690145  RH  047%=      5-min Rain = 0
KHO1 111640Z 18007KT 27/14 A3019 RMK A01 T02670142  RH  046%=      5-min Rain = 0
KHO1 111641Z 19008KT 27/14 A3019 RMK A01 T02650143  RH  047%=      5-min Rain = 0
KHO1 111642Z 19007KT 27/14 A3019 RMK A01 T02650141  RH  047%=      5-min Rain = 0
KHO1 111643Z 19007KT 27/14 A3019 RMK A01 T02650143  RH  047%=      5-min Rain = 0
KHO1 111644Z 19006KT 27/14 A3019 RMK A01 T02650142  RH  047%=      5-min Rain = 0
KHO1 111645Z 20005KT 27/15 A3019 RMK A01 T02660145  RH  047%=      5-min Rain = 0
KHO1 111646Z 19006KT 27/15 A3019 RMK A01 T02670149  RH  048%=      5-min Rain = 0
KHO1 111647Z 17008KT 27/15 A3019 RMK A01 T02690147  RH  047%=      5-min Rain = 0
KHO1 111648Z 17008KT 27/14 A3019 RMK A01 T02710143  RH  046%=      5-min Rain = 0
KHO1 111649Z 17005KT 27/14 A3019 RMK A01 T02710144  RH  046%=      5-min Rain = 0
KHO1 111650Z 18006KT 27/15 A3019 RMK A01 T02730148  RH  046%=      5-min Rain = 0
KHO1 111651Z 18004KT 27/14 A3019 RMK A01 T02730142  RH  045%=      5-min Rain = 0
KHO1 111652Z 20004KT 27/15 A3019 RMK A01 T02740145  RH  045%=      5-min Rain = 0
KHO1 111653Z 18006KT 28/15 A3019 RMK A01 T02750146  RH  045%=      5-min Rain = 0
KHO1 111654Z 18006KT 28/14 A3019 RMK A01 T02760139  RH  043%=      5-min Rain = 0
KHO1 111655Z 18007KT 28/14 A3019 RMK A01 T02750141  RH  044%=      5-min Rain = 0
KHO1 111656Z 17006KT 28/14 A3019 RMK A01 T02750142  RH  044%=      5-min Rain = 0
KHO1 111657Z 17005KT 28/14 A3019 RMK A01 T02750139  RH  043%=      5-min Rain = 0
KHO1 111658Z 17007KT 28/15 A3019 RMK A01 T02750145  RH  045%=      5-min Rain = 0
KHO1 111659Z 18007KT 28/14 A3019 RMK A01 T02750138  RH  043%=      5-min Rain = 0
KHO1 111700Z 16005KT 27/14 A3019 RMK A01 T02740138  RH  043%=      5-min Rain = 0
KHO1 111701Z 19005KT 27/14 A3019 RMK A01 T02740140  RH  044%=      5-min Rain = 0
KHO1 111702Z 19008KT 28/14 A3019 RMK A01 T02750139  RH  043%=      5-min Rain = 0
KHO1 111703Z 21008KT 28/14 A3019 RMK A01 T02750142  RH  044%=      5-min Rain = 0
KHO1 111704Z 22008KT 28/14 A3019 RMK A01 T02770143  RH  044%=      5-min Rain = 0
KHO1 111705Z 21007KT 28/14 A3019 RMK A01 T02770141  RH  043%=      5-min Rain = 0
KHO1 111706Z 21007KT 28/14 A3019 RMK A01 T02770141  RH  043%=      5-min Rain = 0
KHO1 111707Z 22008KT 28/14 A3019 RMK A01 T02760139  RH  043%=      5-min Rain = 0
KHO1 111708Z 21008KT 28/14 A3019 RMK A01 T02770141  RH  043%=      5-min Rain = 0
KHO1 111709Z 20007KT 28/14 A3019 RMK A01 T02770141  RH  043%=      5-min Rain = 0
KHO1 111710Z 19007KT 28/15 A3019 RMK A01 T02800148  RH  045%=      5-min Rain = 0
KHO1 111711Z 20009KT 28/14 A3019 RMK A01 T02810138  RH  041%=      5-min Rain = 0
KHO1 111712Z 20007KT 28/14 A3019 RMK A01 T02780136  RH  042%=      5-min Rain = 0
KHO1 111713Z 20008KT 28/13 A3019 RMK A01 T02780134  RH  041%=      5-min Rain = 0
KHO1 111714Z 19007KT 28/14 A3019 RMK A01 T02760136  RH  042%=      5-min Rain = 0
KHO1 111715Z 18008KT 28/14 A3019 RMK A01 T02770139  RH  043%=      5-min Rain = 0
KHO1 111716Z 19006KT 28/13 A3019 RMK A01 T02770133  RH  041%=      5-min Rain = 0
KHO1 111717Z 18004KT 28/14 A3019 RMK A01 T02770137  RH  042%=      5-min Rain = 0
KHO1 111718Z 18007KT 28/14 A3019 RMK A01 T02780138  RH  042%=      5-min Rain = 0
KHO1 111719Z 17007KT 28/14 A3019 RMK A01 T02790138  RH  042%=      5-min Rain = 0
KHO1 111720Z 16007KT 28/14 A3019 RMK A01 T02800141  RH  043%=      5-min Rain = 0
KHO1 111721Z 16007KT 28/14 A3019 RMK A01 T02800139  RH  042%=      5-min Rain = 0
KHO1 111722Z 18009KT 28/14 A3019 RMK A01 T02800142  RH  043%=      5-min Rain = 0
KHO1 111723Z 20011KT 28/14 A3019 RMK A01 T02780137  RH  042%=      5-min Rain = 0
KHO1 111724Z 20010KT 28/14 A3019 RMK A01 T02770139  RH  043%=      5-min Rain = 0
KHO1 111725Z 20010KT 28/14 A3019 RMK A01 T02770137  RH  042%=      5-min Rain = 0
KHO1 111726Z 20009KT 28/14 A3019 RMK A01 T02760137  RH  042%=      5-min Rain = 0
KHO1 111727Z 20008KT 28/14 A3019 RMK A01 T02750135  RH  042%=      5-min Rain = 0
KHO1 111728Z 19008KT 28/14 A3019 RMK A01 T02750138  RH  043%=      5-min Rain = 0
KHO1 111729Z 20009KT 28/14 A3019 RMK A01 T02760140  RH  043%=      5-min Rain = 0
KHO1 111730Z 20008KT 28/14 A3019 RMK A01 T02780143  RH  044%=      5-min Rain = 0
KHO1 111731Z 19009KT 28/14 A3019 RMK A01 T02800140  RH  042%=      5-min Rain = 0
KHO1 111732Z 19009KT 28/14 A3019 RMK A01 T02810138  RH  042%=      5-min Rain = 0
KHO1 111733Z 18007KT 28/14 A3019 RMK A01 T02800138  RH  042%=      5-min Rain = 0
KHO1 111734Z 18008KT 28/14 A3018 RMK A01 T02800138  RH  041%=      5-min Rain = 0
KHO1 111735Z 19010KT 28/15 A3018 RMK A01 T02830145  RH  043%=      5-min Rain = 0
KHO1 111736Z 20010KT 29/14 A3019 RMK A01 T02860144  RH  042%=      5-min Rain = 0
KHO1 111737Z 20010KT 29/14 A3019 RMK A01 T02860143  RH  042%=      5-min Rain = 0
KHO1 111738Z 19008KT 28/14 A3018 RMK A01 T02830136  RH  040%=      5-min Rain = 0
KHO1 111739Z 19007KT 28/14 A3018 RMK A01 T02800136  RH  041%=      5-min Rain = 0
KHO1 111740Z 18006KT 28/14 A3018 RMK A01 T02790136  RH  041%=      5-min Rain = 0
KHO1 111741Z 17004KT 28/14 A3018 RMK A01 T02780136  RH  041%=      5-min Rain = 0
KHO1 111742Z 19005KT 28/14 A3018 RMK A01 T02790139  RH  042%=      5-min Rain = 0
KHO1 111743Z 19008KT 28/14 A3018 RMK A01 T02800140  RH  042%=      5-min Rain = 0
KHO1 111744Z 20006KT 28/14 A3018 RMK A01 T02830138  RH  041%=      5-min Rain = 0
KHO1 111745Z 18012KT 28/14 A3018 RMK A01 T02840142  RH  042%=      5-min Rain = 0
KHO1 111746Z 18011KT 28/14 A3018 RMK A01 T02840140  RH  041%=      5-min Rain = 0
KHO1 111747Z 18012KT 28/14 A3018 RMK A01 T02840140  RH  041%=      5-min Rain = 0
KHO1 111748Z 20009KT 28/14 A3018 RMK A01 T02830139  RH  041%=      5-min Rain = 0
KHO1 111749Z 21005KT 28/14 A3018 RMK A01 T02830140  RH  041%=      5-min Rain = 0
KHO1 111750Z 20005KT 28/14 A3018 RMK A01 T02830137  RH  041%=      5-min Rain = 0
KHO1 111751Z 20005KT 28/14 A3018 RMK A01 T02840140  RH  041%=      5-min Rain = 0
KHO1 111752Z 20010KT 29/14 A3018 RMK A01 T02850140  RH  041%=      5-min Rain = 0
KHO1 111753Z 20010KT 28/14 A3018 RMK A01 T02840135  RH  040%=      5-min Rain = 0
KHO1 111754Z 20008KT 29/14 A3018 RMK A01 T02850141  RH  041%=      5-min Rain = 0
KHO1 111755Z 19008KT 29/14 A3018 RMK A01 T02870140  RH  040%=      5-min Rain = 0
KHO1 111756Z 17008KT 29/14 A3017 RMK A01 T02890142  RH  041%=      5-min Rain = 0
KHO1 111757Z 19009KT 29/14 A3017 RMK A01 T02890135  RH  039%=      5-min Rain = 0
KHO1 111758Z 19008KT 29/14 A3017 RMK A01 T02880138  RH  040%=      5-min Rain = 0
KHO1 111759Z 18009KT 29/14 A3017 RMK A01 T02870137  RH  040%=      5-min Rain = 0
KHO1 111800Z 18011KT 29/14 A3017 RMK A01 T02870140  RH  040%=      5-min Rain = 0
KHO1 111801Z 18008KT 29/14 A3017 RMK A01 T02880138  RH  040%=      5-min Rain = 0
KHO1 111802Z 18008KT 29/14 A3017 RMK A01 T02880141  RH  041%=      5-min Rain = 0
KHO1 111803Z 18008KT 29/14 A3017 RMK A01 T02880136  RH  039%=      5-min Rain = 0
KHO1 111804Z 17007KT 29/14 A3017 RMK A01 T02890138  RH  040%=      5-min Rain = 0
KHO1 111805Z 19007KT 29/14 A3017 RMK A01 T02890136  RH  039%=      5-min Rain = 0
KHO1 111806Z 17008KT 29/14 A3017 RMK A01 T02900137  RH  039%=      5-min Rain = 0
KHO1 111807Z 18005KT 29/14 A3017 RMK A01 T02890137  RH  039%=      5-min Rain = 0
KHO1 111808Z 14007KT 29/14 A3017 RMK A01 T02900141  RH  040%=      5-min Rain = 0
KHO1 111809Z 13007KT 29/14 A3017 RMK A01 T02910142  RH  040%=      5-min Rain = 0
KHO1 111810Z 17006KT 29/14 A3017 RMK A01 T02930144  RH  040%=      5-min Rain = 0
KHO1 111811Z 18010KT 29/14 A3017 RMK A01 T02940141  RH  039%=      5-min Rain = 0
KHO1 111812Z 16012KT 29/14 A3017 RMK A01 T02930137  RH  038%=      5-min Rain = 0
KHO1 111813Z 17009KT 29/13 A3017 RMK A01 T02910132  RH  038%=      5-min Rain = 0
KHO1 111814Z 18007KT 29/13 A3017 RMK A01 T02890132  RH  038%=      5-min Rain = 0
KHO1 111815Z 17007KT 29/14 A3017 RMK A01 T02900136  RH  039%=      5-min Rain = 0
KHO1 111816Z 17009G14KT 29/13 A3017 RMK A01 T02900133  RH  038%=      5-min Rain = 0
KHO1 111817Z 17010KT 29/13 A3017 RMK A01 T02890131  RH  038%=      5-min Rain = 0
KHO1 111818Z 16009KT 29/13 A3017 RMK A01 T02890133  RH  038%=      5-min Rain = 0
KHO1 111819Z 15010KT 29/14 A3017 RMK A01 T02910136  RH  039%=      5-min Rain = 0
KHO1 111820Z 17012KT 29/13 A3017 RMK A01 T02900126  RH  036%=      5-min Rain = 0
KHO1 111821Z 18008KT 29/13 A3017 RMK A01 T02870126  RH  037%=      5-min Rain = 0
KHO1 111822Z 17007KT 29/13 A3017 RMK A01 T02860128  RH  038%=      5-min Rain = 0
KHO1 111823Z 19008KT 29/14 A3016 RMK A01 T02870135  RH  039%=      5-min Rain = 0
KHO1 111824Z 19011KT 29/13 A3016 RMK A01 T02880133  RH  038%=      5-min Rain = 0
KHO1 111825Z 18008KT 29/13 A3016 RMK A01 T02870133  RH  039%=      5-min Rain = 0
KHO1 111826Z 19011KT 29/13 A3016 RMK A01 T02890133  RH  038%=      5-min Rain = 0
KHO1 111827Z 18009KT 29/13 A3016 RMK A01 T02890131  RH  038%=      5-min Rain = 0
KHO1 111828Z 18010KT 29/13 A3016 RMK A01 T02920133  RH  038%=      5-min Rain = 0
KHO1 111829Z 19010KT 29/13 A3016 RMK A01 T02930133  RH  037%=      5-min Rain = 0
KHO1 111830Z 19009KT 29/13 A3016 RMK A01 T02940130  RH  036%=      5-min Rain = 0
KHO1 111831Z 20009KT 29/14 A3016 RMK A01 T02940135  RH  038%=      5-min Rain = 0
KHO1 111832Z 20010KT 30/14 A3016 RMK A01 T02950136  RH  038%=      5-min Rain = 0
KHO1 111833Z 19008KT 30/14 A3016 RMK A01 T02970135  RH  037%=      5-min Rain = 0
KHO1 111834Z 20008KT 30/14 A3016 RMK A01 T02970135  RH  037%=      5-min Rain = 0
KHO1 111835Z 18010G15KT 30/13 A3016 RMK A01 T02970134  RH  037%=      5-min Rain = 0
KHO1 111836Z 16012KT 30/13 A3016 RMK A01 T03010132  RH  036%=      5-min Rain = 0
KHO1 111837Z 15013KT 30/13 A3016 RMK A01 T02990125  RH  034%=      5-min Rain = 0
KHO1 111838Z 14013KT 30/13 A3016 RMK A01 T02980126  RH  035%=      5-min Rain = 0
KHO1 111839Z 14011KT 30/12 A3016 RMK A01 T02970123  RH  034%=      5-min Rain = 0
KHO1 111840Z 15009KT 30/12 A3016 RMK A01 T02970119  RH  033%=      5-min Rain = 0
KHO1 111841Z 16013KT 30/13 A3016 RMK A01 T02980125  RH  035%=      5-min Rain = 0
KHO1 111842Z 16012KT 30/13 A3016 RMK A01 T02970130  RH  036%=      5-min Rain = 0
KHO1 111843Z 16011KT 30/13 A3016 RMK A01 T02960128  RH  036%=      5-min Rain = 0
KHO1 111844Z 16011KT 30/13 A3016 RMK A01 T02960125  RH  035%=      5-min Rain = 0
KHO1 111845Z 18008KT 30/12 A3015 RMK A01 T02960121  RH  034%=      5-min Rain = 0
KHO1 111846Z 16011KT 30/13 A3015 RMK A01 T02960131  RH  036%=      5-min Rain = 0
KHO1 111847Z 16011KT 30/13 A3015 RMK A01 T02990131  RH  036%=      5-min Rain = 0
KHO1 111848Z 15011KT 30/13 A3015 RMK A01 T02990128  RH  035%=      5-min Rain = 0
KHO1 111849Z 14013KT 30/13 A3015 RMK A01 T02990128  RH  035%=      5-min Rain = 0
KHO1 111850Z 15012KT 30/13 A3015 RMK A01 T02990125  RH  034%=      5-min Rain = 0
KHO1 111851Z 17012KT 30/12 A3015 RMK A01 T02970122  RH  034%=      5-min Rain = 0
KHO1 111852Z 17011KT 30/12 A3015 RMK A01 T02970124  RH  035%=      5-min Rain = 0
KHO1 111853Z 18009KT 30/13 A3015 RMK A01 T02980130  RH  036%=      5-min Rain = 0
KHO1 111854Z 21009G15KT 30/13 A3015 RMK A01 T03010128  RH  035%=      5-min Rain = 0
KHO1 111855Z 19013KT 30/12 A3015 RMK A01 T03010123  RH  034%=      5-min Rain = 0
KHO1 111856Z 19009KT 30/13 A3015 RMK A01 T03010128  RH  035%=      5-min Rain = 0
KHO1 111857Z 19011KT 30/13 A3015 RMK A01 T03030131  RH  035%=      5-min Rain = 0
KHO1 111858Z 18013KT 30/13 A3015 RMK A01 T03040132  RH  035%=      5-min Rain = 0
KHO1 111859Z 17013KT 30/12 A3015 RMK A01 T03000123  RH  034%=      5-min Rain = 0
KHO1 111900Z 18012KT 30/12 A3015 RMK A01 T02980123  RH  034%=      5-min Rain = 0
KHO1 111901Z 19011KT 30/12 A3015 RMK A01 T02990123  RH  034%=      5-min Rain = 0
KHO1 111902Z 16010KT 30/13 A3015 RMK A01 T02990128  RH  035%=      5-min Rain = 0
KHO1 111903Z 17006KT 30/13 A3015 RMK A01 T03000130  RH  035%=      5-min Rain = 0
KHO1 111904Z 19007KT 30/13 A3015 RMK A01 T03010130  RH  035%=      5-min Rain = 0
KHO1 111905Z 18013KT 30/13 A3015 RMK A01 T03000126  RH  034%=      5-min Rain = 0
KHO1 111906Z 17014KT 30/12 A3015 RMK A01 T02970123  RH  034%=      5-min Rain = 0
KHO1 111907Z 18014KT 30/13 A3015 RMK A01 T02980126  RH  035%=      5-min Rain = 0
KHO1 111908Z 17015KT 30/13 A3015 RMK A01 T03010125  RH  034%=      5-min Rain = 0
KHO1 111909Z 17012KT 30/12 A3015 RMK A01 T03010124  RH  034%=      5-min Rain = 0
KHO1 111910Z 16011KT 30/12 A3015 RMK A01 T03010121  RH  033%=      5-min Rain = 0
KHO1 111911Z 17012KT 30/13 A3015 RMK A01 T03020127  RH  034%=      5-min Rain = 0
KHO1 111912Z 18007G13KT 30/12 A3014 RMK A01 T03000121  RH  033%=      5-min Rain = 0
KHO1 111913Z 18013KT 30/13 A3014 RMK A01 T03010130  RH  035%=      5-min Rain = 0
KHO1 111914Z 17014KT 30/12 A3014 RMK A01 T03040124  RH  033%=      5-min Rain = 0
KHO1 111915Z 19013KT 30/12 A3015 RMK A01 T03010123  RH  033%=      5-min Rain = 0
KHO1 111916Z 19012KT 30/13 A3014 RMK A01 T03010132  RH  035%=      5-min Rain = 0
KHO1 111917Z 20012KT 30/13 A3015 RMK A01 T03020126  RH  034%=      5-min Rain = 0
KHO1 111918Z 18009KT 30/12 A3014 RMK A01 T03000124  RH  034%=      5-min Rain = 0
KHO1 111919Z 18010KT 30/12 A3014 RMK A01 T03000122  RH  034%=      5-min Rain = 0
KHO1 111920Z 18009G17KT 30/12 A3014 RMK A01 T03000122  RH  033%=      5-min Rain = 0
KHO1 111921Z 18016KT 30/13 A3014 RMK A01 T03030127  RH  034%=      5-min Rain = 0
KHO1 111922Z 18014KT 30/12 A3014 RMK A01 T03040120  RH  032%=      5-min Rain = 0
KHO1 111923Z 16011KT 30/12 A3014 RMK A01 T03020123  RH  033%=      5-min Rain = 0
KHO1 111924Z 17015KT 31/12 A3014 RMK A01 T03050123  RH  033%=      5-min Rain = 0
KHO1 111925Z 18012KT 31/12 A3014 RMK A01 T03060124  RH  033%=      5-min Rain = 0
KHO1 111926Z 19011KT 31/12 A3014 RMK A01 T03060122  RH  032%=      5-min Rain = 0
KHO1 111927Z 20008KT 31/12 A3014 RMK A01 T03050123  RH  033%=      5-min Rain = 0
KHO1 111928Z 20008KT 30/12 A3014 RMK A01 T03040121  RH  032%=      5-min Rain = 0
KHO1 111929Z 19008KT 30/12 A3014 RMK A01 T03040123  RH  033%=      5-min Rain = 0
KHO1 111930Z 18010G15KT 31/13 A3014 RMK A01 T03070127  RH  033%=      5-min Rain = 0
KHO1 111931Z 17013KT 31/12 A3014 RMK A01 T03080122  RH  032%=      5-min Rain = 0
KHO1 111932Z 17011KT 31/12 A3014 RMK A01 T03070122  RH  032%=      5-min Rain = 0
KHO1 111933Z 16008KT 31/12 A3014 RMK A01 T03050123  RH  033%=      5-min Rain = 0
KHO1 111934Z 15008KT 31/12 A3014 RMK A01 T03070123  RH  032%=      5-min Rain = 0
KHO1 111935Z 16007KT 31/12 A3014 RMK A01 T03050119  RH  032%=      5-min Rain = 0
KHO1 111936Z 17013KT 31/13 A3014 RMK A01 T03050126  RH  033%=      5-min Rain = 0
KHO1 111937Z 18014KT 31/13 A3014 RMK A01 T03080127  RH  033%=      5-min Rain = 0
KHO1 111938Z 17010KT 31/12 A3014 RMK A01 T03060124  RH  033%=      5-min Rain = 0
KHO1 111939Z 18010KT 31/13 A3014 RMK A01 T03080127  RH  033%=      5-min Rain = 0
KHO1 111940Z 19010KT 31/13 A3014 RMK A01 T03080126  RH  033%=      5-min Rain = 0
KHO1 111941Z 18010KT 31/13 A3014 RMK A01 T03080125  RH  032%=      5-min Rain = 0
KHO1 111942Z 17009KT 31/13 A3014 RMK A01 T03060125  RH  033%=      5-min Rain = 0
KHO1 111943Z 19012G18KT 31/12 A3014 RMK A01 T03060123  RH  033%=      5-min Rain = 0
KHO1 111944Z 19008KT 31/12 A3014 RMK A01 T03050123  RH  033%=      5-min Rain = 0
KHO1 111945Z 19014KT 31/13 A3014 RMK A01 T03070125  RH  033%=      5-min Rain = 0
KHO1 111946Z 18013KT 31/13 A3013 RMK A01 T03070125  RH  033%=      5-min Rain = 0
KHO1 111947Z 19011KT 31/12 A3014 RMK A01 T03070124  RH  033%=      5-min Rain = 0
KHO1 111948Z 19012KT 31/12 A3013 RMK A01 T03060124  RH  033%=      5-min Rain = 0
KHO1 111949Z 19010KT 31/12 A3013 RMK A01 T03050120  RH  032%=      5-min Rain = 0
KHO1 111950Z 19009KT 31/12 A3013 RMK A01 T03070124  RH  033%=      5-min Rain = 0
KHO1 111951Z 20006KT 31/13 A3013 RMK A01 T03070125  RH  033%=      5-min Rain = 0
KHO1 111952Z 20013KT 31/13 A3013 RMK A01 T03070126  RH  033%=      5-min Rain = 0
KHO1 111953Z 19013KT 30/12 A3013 RMK A01 T03030122  RH  033%=      5-min Rain = 0
KHO1 111954Z 18009KT 30/12 A3013 RMK A01 T03020124  RH  034%=      5-min Rain = 0
KHO1 111955Z 16008KT 30/13 A3013 RMK A01 T03030127  RH  034%=      5-min Rain = 0
KHO1 111956Z 17008KT 30/13 A3013 RMK A01 T03040125  RH  033%=      5-min Rain = 0
KHO1 111957Z 18012KT 31/13 A3013 RMK A01 T03050125  RH  033%=      5-min Rain = 0
KHO1 111958Z 18013KT 31/12 A3013 RMK A01 T03050119  RH  032%=      5-min Rain = 0
KHO1 111959Z 17014KT 31/12 A3013 RMK A01 T03050120  RH  032%=      5-min Rain = 0
KHO1 112000Z 16014KT 31/12 A3013 RMK A01 T03050121  RH  032%=      5-min Rain = 0
KHO1 112001Z 16012KT 31/12 A3013 RMK A01 T03050118  RH  032%=      5-min Rain = 0
KHO1 112002Z 16010KT 30/12 A3013 RMK A01 T03040118  RH  032%=      5-min Rain = 0
KHO1 112003Z 18008KT 30/12 A3013 RMK A01 T03040118  RH  032%=      5-min Rain = 0
KHO1 112004Z 16011KT 31/12 A3013 RMK A01 T03060122  RH  032%=      5-min Rain = 0
KHO1 112005Z 15011KT 31/13 A3013 RMK A01 T03070125  RH  033%=      5-min Rain = 0
KHO1 112006Z 17013KT 31/13 A3013 RMK A01 T03110127  RH  032%=      5-min Rain = 0
KHO1 112007Z 18012KT 31/12 A3013 RMK A01 T03090120  RH  031%=      5-min Rain = 0
KHO1 112008Z 19012KT 31/12 A3013 RMK A01 T03070122  RH  032%=      5-min Rain = 0
KHO1 112009Z 17010KT 31/13 A3012 RMK A01 T03090128  RH  033%=      5-min Rain = 0
KHO1 112010Z 17012KT 31/13 A3012 RMK A01 T03130125  RH  032%=      5-min Rain = 0
KHO1 112011Z 19009KT 31/12 A3012 RMK A01 T03100124  RH  032%=      5-min Rain = 0
KHO1 112012Z 19013KT 31/13 A3012 RMK A01 T03110126  RH  032%=      5-min Rain = 0
KHO1 112013Z 17014KT 31/13 A3012 RMK A01 T03110125  RH  032%=      5-min Rain = 0
KHO1 112014Z 18012KT 31/12 A3012 RMK A01 T03080122  RH  032%=      5-min Rain = 0
KHO1 112015Z 18008KT 31/12 A3012 RMK A01 T03050118  RH  032%=      5-min Rain = 0
KHO1 112016Z 17010KT 30/12 A3012 RMK A01 T03040121  RH  032%=      5-min Rain = 0
KHO1 112017Z 15011KT 31/12 A3012 RMK A01 T03060121  RH  032%=      5-min Rain = 0
KHO1 112018Z 17010KT 31/13 A3012 RMK A01 T03080125  RH  033%=      5-min Rain = 0
KHO1 112019Z 18012G17KT 31/12 A3012 RMK A01 T03110124  RH  032%=      5-min Rain = 0
KHO1 112020Z 20014KT 31/12 A3012 RMK A01 T03110123  RH  032%=      5-min Rain = 0
KHO1 112021Z 18011KT 31/12 A3012 RMK A01 T03090120  RH  031%=      5-min Rain = 0
KHO1 112022Z 19011KT 31/13 A3012 RMK A01 T03090125  RH  032%=      5-min Rain = 0
KHO1 112023Z 17012G17KT 31/12 A3012 RMK A01 T03110124  RH  032%=      5-min Rain = 0
KHO1 112024Z 18015G21KT 31/12 A3012 RMK A01 T03100121  RH  031%=      5-min Rain = 0
KHO1 112025Z 19012KT 31/12 A3012 RMK A01 T03090121  RH  032%=      5-min Rain = 0
KHO1 112026Z 19014KT 31/12 A3011 RMK A01 T03080123  RH  032%=      5-min Rain = 0
KHO1 112027Z 20013KT 31/12 A3012 RMK A01 T03080120  RH  032%=      5-min Rain = 0
KHO1 112028Z 20006KT 31/12 A3011 RMK A01 T03050119  RH  032%=      5-min Rain = 0
KHO1 112029Z 18012KT 31/13 A3011 RMK A01 T03070125  RH  033%=      5-min Rain = 0
KHO1 112030Z 19014KT 31/12 A3012 RMK A01 T03080116  RH  031%=      5-min Rain = 0
KHO1 112031Z 18011KT 31/12 A3011 RMK A01 T03080119  RH  031%=      5-min Rain = 0
KHO1 112032Z 18010KT 31/12 A3011 RMK A01 T03100123  RH  032%=      5-min Rain = 0
KHO1 112033Z 18013KT 31/12 A3011 RMK A01 T03130118  RH  030%=      5-min Rain = 0
KHO1 112034Z 18012KT 31/12 A3011 RMK A01 T03120116  RH  030%=      5-min Rain = 0
KHO1 112035Z 18011KT 31/12 A3011 RMK A01 T03130123  RH  031%=      5-min Rain = 0
KHO1 112036Z 18013KT 31/12 A3011 RMK A01 T03140124  RH  031%=      5-min Rain = 0
KHO1 112037Z 19013KT 31/12 A3012 RMK A01 T03130120  RH  031%=      5-min Rain = 0
KHO1 112038Z 19011KT 31/12 A3011 RMK A01 T03100120  RH  031%=      5-min Rain = 0
KHO1 112039Z 19013KT 31/12 A3011 RMK A01 T03100118  RH  031%=      5-min Rain = 0
KHO1 112040Z 19010KT 31/12 A3011 RMK A01 T03100118  RH  031%=      5-min Rain = 0
KHO1 112041Z 17014KT 31/12 A3011 RMK A01 T03110119  RH  031%=      5-min Rain = 0
KHO1 112042Z 16011KT 31/12 A3011 RMK A01 T03100115  RH  030%=      5-min Rain = 0
KHO1 112043Z 16010KT 31/12 A3011 RMK A01 T03110121  RH  031%=      5-min Rain = 0
KHO1 112044Z 17012KT 31/12 A3011 RMK A01 T03140116  RH  030%=      5-min Rain = 0
KHO1 112045Z 17011KT 31/12 A3011 RMK A01 T03140118  RH  030%=      5-min Rain = 0
KHO1 112046Z 18008KT 31/12 A3011 RMK A01 T03110116  RH  030%=      5-min Rain = 0
KHO1 112047Z 20014G21KT 31/12 A3011 RMK A01 T03110121  RH  031%=      5-min Rain = 0
KHO1 112048Z 19017KT 31/12 A3011 RMK A01 T03130118  RH  030%=      5-min Rain = 0
KHO1 112049Z 17016KT 31/11 A3011 RMK A01 T03120113  RH  029%=      5-min Rain = 0
KHO1 112050Z 17011G18KT 31/11 A3011 RMK A01 T03110113  RH  030%=      5-min Rain = 0
KHO1 112051Z 16013G18KT 31/11 A3011 RMK A01 T03110114  RH  030%=      5-min Rain = 0
KHO1 112052Z 16014KT 31/11 A3011 RMK A01 T03110113  RH  029%=      5-min Rain = 0
KHO1 112053Z 16010KT 31/12 A301 RMK A01 T03110115  RH  030%=      5-min Rain = 0
KHO1 112054Z 16013KT 31/12 A301 RMK A01 T03110115  RH  030%=      5-min Rain = 0
KHO1 112055Z 16011KT 31/12 A301 RMK A01 T03110119  RH  031%=      5-min Rain = 0
KHO1 112056Z 16012KT 31/12 A301 RMK A01 T03110116  RH  030%=      5-min Rain = 0
KHO1 112057Z 19011KT 31/12 A301 RMK A01 T03130122  RH  031%=      5-min Rain = 0
KHO1 112058Z 20011KT 32/12 A301 RMK A01 T03150119  RH  030%=      5-min Rain = 0
KHO1 112059Z 20012KT 31/12 A301 RMK A01 T03130115  RH  030%=      5-min Rain = 0
KHO1 112100Z 20010KT 31/12 A301 RMK A01 T03110115  RH  030%=      5-min Rain = 0
KHO1 112101Z 19010KT 31/12 A301 RMK A01 T03110117  RH  030%=      5-min Rain = 0
KHO1 112102Z 16012KT 31/12 A301 RMK A01 T03140121  RH  031%=      5-min Rain = 0
KHO1 112103Z 16014KT 32/12 A301 RMK A01 T03160115  RH  029%=      5-min Rain = 0
KHO1 112104Z 16012KT 32/11 A301 RMK A01 T03150112  RH  029%=      5-min Rain = 0
KHO1 112105Z 17011KT 31/11 A301 RMK A01 T03120110  RH  029%=      5-min Rain = 0
KHO1 112106Z 19009KT 31/11 A301 RMK A01 T03130114  RH  029%=      5-min Rain = 0
KHO1 112107Z 18009KT 31/11 A301 RMK A01 T03130110  RH  029%=      5-min Rain = 0
KHO1 112108Z 17011KT 32/11 A301 RMK A01 T03150112  RH  029%=      5-min Rain = 0
KHO1 112109Z 17009KT 32/12 A301 RMK A01 T03170115  RH  029%=      5-min Rain = 0
KHO1 112110Z 18007KT 32/11 A301 RMK A01 T03160106  RH  027%=      5-min Rain = 0
KHO1 112111Z 16012G17KT 32/11 A301 RMK A01 T03150112  RH  029%=      5-min Rain = 0
KHO1 112112Z 16010KT 32/11 A301 RMK A01 T03160114  RH  029%=      5-min Rain = 0
KHO1 112113Z 17007KT 32/12 A301 RMK A01 T03170120  RH  030%=      5-min Rain = 0
KHO1 112114Z 19012KT 32/12 A301 RMK A01 T03210121  RH  029%=      5-min Rain = 0
KHO1 112115Z 19011G16KT 32/11 A301 RMK A01 T03170113  RH  029%=      5-min Rain = 0
KHO1 112116Z 19009KT 32/12 A301 RMK A01 T03160118  RH  030%=      5-min Rain = 0
KHO1 112117Z 20012KT 32/12 A301 RMK A01 T03150116  RH  030%=      5-min Rain = 0
KHO1 112118Z 20013KT 32/12 A301 RMK A01 T03150118  RH  030%=      5-min Rain = 0
KHO1 112119Z 20013G20KT 32/12 A301 RMK A01 T03150118  RH  030%=      5-min Rain = 0
KHO1 112120Z 19015KT 31/11 A301 RMK A01 T03130112  RH  029%=      5-min Rain = 0
KHO1 112121Z 19012KT 31/12 A301 RMK A01 T03120115  RH  030%=      5-min Rain = 0
KHO1 112122Z 18012KT 31/11 A301 RMK A01 T03130114  RH  030%=      5-min Rain = 0
KHO1 112123Z 18014KT 31/12 A301 RMK A01 T03140116  RH  030%=      5-min Rain = 0
KHO1 112124Z 18012KT 31/12 A301 RMK A01 T03130118  RH  030%=      5-min Rain = 0
KHO1 112125Z 17013KT 31/12 A301 RMK A01 T03140116  RH  030%=      5-min Rain = 0
KHO1 112126Z 19013KT 31/11 A301 RMK A01 T03130114  RH  029%=      5-min Rain = 0
KHO1 112127Z 19010KT 31/11 A301 RMK A01 T03120114  RH  030%=      5-min Rain = 0
KHO1 112128Z 21007KT 31/12 A3009 RMK A01 T03120117  RH  030%=      5-min Rain = 0
KHO1 112129Z 21006KT 31/11 A3009 RMK A01 T03130114  RH  029%=      5-min Rain = 0
KHO1 112130Z 17009G14KT 31/12 A3009 RMK A01 T03140117  RH  030%=      5-min Rain = 0
KHO1 112131Z 17011KT 32/12 A3009 RMK A01 T03150117  RH  030%=      5-min Rain = 0
KHO1 112132Z 17010KT 32/12 A3009 RMK A01 T03160116  RH  029%=      5-min Rain = 0
KHO1 112133Z 19007KT 32/12 A3009 RMK A01 T03150115  RH  029%=      5-min Rain = 0
KHO1 112134Z 21009KT 32/12 A3009 RMK A01 T03150115  RH  029%=      5-min Rain = 0
KHO1 112135Z 18011G17KT 32/12 A3009 RMK A01 T03160122  RH  030%=      5-min Rain = 0
KHO1 112136Z 18015KT 32/12 A3009 RMK A01 T03160117  RH  030%=      5-min Rain = 0
KHO1 112137Z 17015KT 32/12 A3009 RMK A01 T03160117  RH  030%=      5-min Rain = 0
KHO1 112138Z 15013KT 32/12 A3009 RMK A01 T03150118  RH  030%=      5-min Rain = 0
KHO1 112139Z 17010KT 31/12 A3009 RMK A01 T03140120  RH  030%=      5-min Rain = 0
KHO1 112140Z 18013KT 32/12 A3009 RMK A01 T03160122  RH  031%=      5-min Rain = 0
KHO1 112141Z 19010KT 32/12 A3009 RMK A01 T03160118  RH  030%=      5-min Rain = 0
KHO1 112142Z 19011KT 32/12 A3009 RMK A01 T03150118  RH  030%=      5-min Rain = 0
KHO1 112143Z 19010KT 31/12 A3009 RMK A01 T03140119  RH  030%=      5-min Rain = 0
KHO1 112144Z 18013KT 32/12 A3009 RMK A01 T03150122  RH  031%=      5-min Rain = 0
KHO1 112145Z 18016KT 32/12 A3009 RMK A01 T03150117  RH  030%=      5-min Rain = 0
KHO1 112146Z 18013KT 31/12 A3009 RMK A01 T03140120  RH  030%=      5-min Rain = 0
KHO1 112147Z 18013KT 32/12 A3009 RMK A01 T03150120  RH  030%=      5-min Rain = 0
KHO1 112148Z 17011KT 32/12 A3009 RMK A01 T03150118  RH  030%=      5-min Rain = 0
KHO1 112149Z 17011KT 31/12 A3009 RMK A01 T03120117  RH  030%=      5-min Rain = 0
KHO1 112150Z 16011KT 31/11 A3008 RMK A01 T03090113  RH  030%=      5-min Rain = 0
KHO1 112151Z 17011KT 31/12 A3009 RMK A01 T03080115  RH  031%=      5-min Rain = 0
KHO1 112152Z 18013KT 31/12 A3008 RMK A01 T03100118  RH  031%=      5-min Rain = 0
KHO1 112153Z 16011KT 31/12 A3008 RMK A01 T03110119  RH  031%=      5-min Rain = 0
KHO1 112154Z 17009G15KT 31/12 A3008 RMK A01 T03120121  RH  031%=      5-min Rain = 0
KHO1 112155Z 18011KT 32/13 A3008 RMK A01 T03170125  RH  031%=      5-min Rain = 0
KHO1 112156Z 17013KT 32/12 A3009 RMK A01 T03180121  RH  030%=      5-min Rain = 0
KHO1 112157Z 18009KT 32/12 A3009 RMK A01 T03150118  RH  030%=      5-min Rain = 0
KHO1 112158Z 18011KT 31/12 A3008 RMK A01 T03130116  RH  030%=      5-min Rain = 0
KHO1 112159Z 18012KT 31/12 A3008 RMK A01 T03130118  RH  030%=      5-min Rain = 0
KHO1 112200Z 18010KT 31/12 A3008 RMK A01 T03120118  RH  030%=      5-min Rain = 0
KHO1 112201Z 17010KT 31/12 A3008 RMK A01 T03100115  RH  030%=      5-min Rain = 0
KHO1 112202Z 16011KT 31/12 A3008 RMK A01 T03100120  RH  031%=      5-min Rain = 0
KHO1 112203Z 17013KT 31/12 A3008 RMK A01 T03140123  RH  031%=      5-min Rain = 0
KHO1 112204Z 19014KT 31/12 A3008 RMK A01 T03140120  RH  030%=      5-min Rain = 0
KHO1 112205Z 18009KT 31/12 A3008 RMK A01 T03130118  RH  030%=      5-min Rain = 0
KHO1 112206Z 18010KT 31/12 A3008 RMK A01 T03130119  RH  030%=      5-min Rain = 0
KHO1 112207Z 17011KT 31/12 A3008 RMK A01 T03140122  RH  031%=      5-min Rain = 0
KHO1 112208Z 19010KT 31/12 A3008 RMK A01 T03140117  RH  030%=      5-min Rain = 0
KHO1 112209Z 19009KT 31/12 A3008 RMK A01 T03120119  RH  031%=      5-min Rain = 0
KHO1 112210Z 19013KT 32/12 A3008 RMK A01 T03150123  RH  031%=      5-min Rain = 0
KHO1 112211Z 18015KT 31/12 A3008 RMK A01 T03140116  RH  030%=      5-min Rain = 0
KHO1 112212Z 17011KT 31/12 A3008 RMK A01 T03090116  RH  030%=      5-min Rain = 0
KHO1 112213Z 16010KT 31/12 A3008 RMK A01 T03090118  RH  031%=      5-min Rain = 0
KHO1 112214Z 18014KT 31/12 A3008 RMK A01 T03110118  RH  031%=      5-min Rain = 0
KHO1 112215Z 19013KT 31/12 A3008 RMK A01 T03110119  RH  031%=      5-min Rain = 0
KHO1 112216Z 18012KT 31/12 A3008 RMK A01 T03110118  RH  030%=      5-min Rain = 0
KHO1 112217Z 18012KT 31/12 A3008 RMK A01 T03120120  RH  031%=      5-min Rain = 0
KHO1 112218Z 19013G18KT 31/12 A3008 RMK A01 T03130117  RH  030%=      5-min Rain = 0
KHO1 112219Z 19011KT 31/12 A3008 RMK A01 T03120118  RH  030%=      5-min Rain = 0
KHO1 112220Z 19009KT 31/12 A3008 RMK A01 T03120118  RH  030%=      5-min Rain = 0
KHO1 112221Z 18010KT 31/12 A3008 RMK A01 T03120118  RH  031%=      5-min Rain = 0
KHO1 112222Z 18010KT 31/12 A3008 RMK A01 T03100117  RH  030%=      5-min Rain = 0
KHO1 112223Z 19010KT 31/12 A3007 RMK A01 T03110116  RH  030%=      5-min Rain = 0
KHO1 112224Z 17008KT 31/12 A3007 RMK A01 T03120116  RH  030%=      5-min Rain = 0
KHO1 112225Z 16011KT 31/12 A3007 RMK A01 T03130119  RH  030%=      5-min Rain = 0
KHO1 112226Z 17011KT 31/12 A3007 RMK A01 T03130116  RH  030%=      5-min Rain = 0
KHO1 112227Z 18011G16KT 31/12 A3007 RMK A01 T03140120  RH  031%=      5-min Rain = 0
KHO1 112228Z 18013KT 32/12 A3007 RMK A01 T03160117  RH  030%=      5-min Rain = 0
KHO1 112229Z 17011KT 31/12 A3007 RMK A01 T03140119  RH  030%=      5-min Rain = 0
KHO1 112230Z 18011KT 31/12 A3007 RMK A01 T03140115  RH  029%=      5-min Rain = 0
KHO1 112231Z 18012KT 31/12 A3007 RMK A01 T03140118  RH  030%=      5-min Rain = 0
KHO1 112232Z 17010KT 32/12 A3007 RMK A01 T03150117  RH  030%=      5-min Rain = 0
KHO1 112233Z 17011KT 31/12 A3007 RMK A01 T03140117  RH  030%=      5-min Rain = 0
KHO1 112234Z 19012KT 32/12 A3007 RMK A01 T03160118  RH  030%=      5-min Rain = 0
KHO1 112235Z 20011KT 32/12 A3007 RMK A01 T03150116  RH  030%=      5-min Rain = 0
KHO1 112236Z 20010KT 32/12 A3007 RMK A01 T03150117  RH  030%=      5-min Rain = 0
KHO1 112237Z 18008KT 31/12 A3007 RMK A01 T03140118  RH  030%=      5-min Rain = 0
KHO1 112238Z 18012KT 31/12 A3007 RMK A01 T03140118  RH  030%=      5-min Rain = 0
KHO1 112239Z 18012KT 31/12 A3007 RMK A01 T03130117  RH  030%=      5-min Rain = 0
KHO1 112240Z 18013KT 31/12 A3007 RMK A01 T03120116  RH  030%=      5-min Rain = 0
KHO1 112241Z 19012KT 31/12 A3007 RMK A01 T03120117  RH  030%=      5-min Rain = 0
KHO1 112242Z 17013KT 31/12 A3007 RMK A01 T03120118  RH  030%=      5-min Rain = 0
KHO1 112243Z 18009KT 31/12 A3007 RMK A01 T03120121  RH  031%=      5-min Rain = 0
KHO1 112244Z 20010KT 31/12 A3007 RMK A01 T03140121  RH  031%=      5-min Rain = 0
KHO1 112245Z 20011KT 31/12 A3007 RMK A01 T03140118  RH  030%=      5-min Rain = 0
KHO1 112246Z 20010KT 31/12 A3007 RMK A01 T03140119  RH  030%=      5-min Rain = 0
KHO1 112247Z 20010KT 31/12 A3007 RMK A01 T03140120  RH  031%=      5-min Rain = 0
KHO1 112248Z 19011G16KT 32/12 A3007 RMK A01 T03150121  RH  030%=      5-min Rain = 0
KHO1 112249Z 18013KT 31/12 A3007 RMK A01 T03140115  RH  030%=      5-min Rain = 0
KHO1 112250Z 18013KT 31/12 A3007 RMK A01 T03130115  RH  030%=      5-min Rain = 0
KHO1 112251Z 19010KT 31/12 A3007 RMK A01 T03120116  RH  030%=      5-min Rain = 0
KHO1 112252Z 18008KT 31/12 A3007 RMK A01 T03120118  RH  031%=      5-min Rain = 0
KHO1 112253Z 21009KT 31/12 A3007 RMK A01 T03140122  RH  031%=      5-min Rain = 0
KHO1 112254Z 20010KT 32/12 A3007 RMK A01 T03150120  RH  030%=      5-min Rain = 0
KHO1 112255Z 20010KT 31/12 A3007 RMK A01 T03140116  RH  030%=      5-min Rain = 0
KHO1 112256Z 21009KT 31/11 A3006 RMK A01 T03120113  RH  029%=      5-min Rain = 0
KHO1 112257Z 20012KT 31/12 A3006 RMK A01 T03120116  RH  030%=      5-min Rain = 0
KHO1 112258Z 20010KT 31/12 A3006 RMK A01 T03120119  RH  031%=      5-min Rain = 0
KHO1 112259Z 18009KT 31/12 A3007 RMK A01 T03130119  RH  030%=      5-min Rain = 0
KHO1 112300Z 17009KT 31/12 A3007 RMK A01 T03130119  RH  030%=      5-min Rain = 0
KHO1 112301Z 18011KT 31/12 A3007 RMK A01 T03120117  RH  030%=      5-min Rain = 0
KHO1 112302Z 18016KT 31/12 A3007 RMK A01 T03120118  RH  030%=      5-min Rain = 0
KHO1 112303Z 18016KT 31/12 A3007 RMK A01 T03120117  RH  030%=      5-min Rain = 0
KHO1 112304Z 18012KT 31/12 A3007 RMK A01 T03100116  RH  030%=      5-min Rain = 0
KHO1 112305Z 19012KT 31/12 A3007 RMK A01 T03100117  RH  031%=      5-min Rain = 0
KHO1 112306Z 19009KT 31/12 A3007 RMK A01 T03100116  RH  030%=      5-min Rain = 0
KHO1 112307Z 18010KT 31/12 A3007 RMK A01 T03110120  RH  031%=      5-min Rain = 0
KHO1 112308Z 18014KT 31/12 A3007 RMK A01 T03120117  RH  030%=      5-min Rain = 0
KHO1 112309Z 19012KT 31/12 A3007 RMK A01 T03110118  RH  031%=      5-min Rain = 0
KHO1 112310Z 19012KT 31/12 A3007 RMK A01 T03120121  RH  031%=      5-min Rain = 0
KHO1 112311Z 18011KT 31/12 A3007 RMK A01 T03130118  RH  030%=      5-min Rain = 0
KHO1 112312Z 19011KT 31/12 A3007 RMK A01 T03120121  RH  031%=      5-min Rain = 0
KHO1 112313Z 19014KT 31/12 A3007 RMK A01 T03130118  RH  030%=      5-min Rain = 0
KHO1 112314Z 19014KT 31/12 A3007 RMK A01 T03110115  RH  030%=      5-min Rain = 0
KHO1 112315Z 19013KT 31/11 A3007 RMK A01 T03090114  RH  030%=      5-min Rain = 0
KHO1 112316Z 20014KT 31/12 A3007 RMK A01 T03090115  RH  030%=      5-min Rain = 0
KHO1 112317Z 19012KT 31/12 A3007 RMK A01 T03090115  RH  030%=      5-min Rain = 0
KHO1 112318Z 19011KT 31/12 A3007 RMK A01 T03100117  RH  031%=      5-min Rain = 0
KHO1 112319Z 18011KT 31/12 A3007 RMK A01 T03100117  RH  031%=      5-min Rain = 0
KHO1 112320Z 18010KT 31/12 A3007 RMK A01 T03110119  RH  031%=      5-min Rain = 0
KHO1 112321Z 20009KT 31/12 A3007 RMK A01 T03120120  RH  031%=      5-min Rain = 0
KHO1 112322Z 18014KT 31/12 A3007 RMK A01 T03130118  RH  030%=      5-min Rain = 0
KHO1 112323Z 18013KT 31/12 A3007 RMK A01 T03120117  RH  030%=      5-min Rain = 0
KHO1 112324Z 18013G18KT 31/12 A3007 RMK A01 T03110115  RH  030%=      5-min Rain = 0
KHO1 112325Z 18014KT 31/12 A3007 RMK A01 T03110117  RH  030%=      5-min Rain = 0
KHO1 112326Z 19013KT 31/12 A3007 RMK A01 T03110118  RH  031%=      5-min Rain = 0
KHO1 112327Z 17014KT 31/12 A3007 RMK A01 T03110116  RH  030%=      5-min Rain = 0
KHO1 112328Z 18013KT 31/12 A3007 RMK A01 T03100115  RH  030%=      5-min Rain = 0
KHO1 112329Z 17013KT 31/12 A3007 RMK A01 T03110117  RH  030%=      5-min Rain = 0
KHO1 112330Z 17010KT 31/12 A3007 RMK A01 T03100117  RH  031%=      5-min Rain = 0
KHO1 112331Z 18012KT 31/12 A3007 RMK A01 T03110117  RH  030%=      5-min Rain = 0
KHO1 112332Z 16011KT 31/12 A3007 RMK A01 T03110119  RH  031%=      5-min Rain = 0
KHO1 112333Z 16012G17KT 31/12 A3006 RMK A01 T03130121  RH  031%=      5-min Rain = 0
KHO1 112334Z 17014KT 31/12 A3007 RMK A01 T03130116  RH  030%=      5-min Rain = 0
KHO1 112335Z 17014G19KT 31/12 A3006 RMK A01 T03100115  RH  030%=      5-min Rain = 0
KHO1 112336Z 16016KT 31/12 A3006 RMK A01 T03100116  RH  030%=      5-min Rain = 0
KHO1 112337Z 17018KT 31/12 A3007 RMK A01 T03100116  RH  030%=      5-min Rain = 0
KHO1 112338Z 18016KT 31/11 A3007 RMK A01 T03080114  RH  030%=      5-min Rain = 0
KHO1 112339Z 18016KT 31/12 A3006 RMK A01 T03070115  RH  031%=      5-min Rain = 0
KHO1 112340Z 17015KT 31/11 A3007 RMK A01 T03060114  RH  031%=      5-min Rain = 0
KHO1 112341Z 17015KT 31/11 A3006 RMK A01 T03060114  RH  031%=      5-min Rain = 0
KHO1 112342Z 15014KT 31/12 A3006 RMK A01 T03070116  RH  031%=      5-min Rain = 0
KHO1 112343Z 16014KT 31/12 A3006 RMK A01 T03070115  RH  031%=      5-min Rain = 0
KHO1 112344Z 17013KT 31/12 A3006 RMK A01 T03060115  RH  031%=      5-min Rain = 0
KHO1 112345Z 18012KT 31/12 A3006 RMK A01 T03060116  RH  031%=      5-min Rain = 0
KHO1 112346Z 18013KT 31/12 A3006 RMK A01 T03050115  RH  031%=      5-min Rain = 0
KHO1 112347Z 17012KT 31/12 A3006 RMK A01 T03050116  RH  031%=      5-min Rain = 0
KHO1 112348Z 17009KT 31/12 A3006 RMK A01 T03050116  RH  031%=      5-min Rain = 0
KHO1 112349Z 17009KT 30/12 A3006 RMK A01 T03040117  RH  031%=      5-min Rain = 0
KHO1 112350Z 18012KT 30/12 A3006 RMK A01 T03040116  RH  031%=      5-min Rain = 0
KHO1 112351Z 17011KT 30/12 A3006 RMK A01 T03040116  RH  031%=      5-min Rain = 0
KHO1 112352Z 17012KT 30/11 A3006 RMK A01 T03030114  RH  031%=      5-min Rain = 0
KHO1 112353Z 16012KT 30/11 A3006 RMK A01 T03030114  RH  031%=      5-min Rain = 0
KHO1 112354Z 17008KT 30/12 A3006 RMK A01 T03030116  RH  032%=      5-min Rain = 0
KHO1 112355Z 17011G17KT 30/12 A3006 RMK A01 T03040117  RH  032%=      5-min Rain = 0
KHO1 112356Z 17012KT 30/11 A3006 RMK A01 T03030114  RH  031%=      5-min Rain = 0
KHO1 112357Z 16012KT 30/12 A3006 RMK A01 T03030115  RH  031%=      5-min Rain = 0
KHO1 112358Z 17011KT 30/12 A3006 RMK A01 T03030116  RH  032%=      5-min Rain = 0
KHO1 112359Z 17012KT 30/12 A3006 RMK A01 T03030116  RH  032%=      5-min Rain = 0
KHO1 120000Z 17010KT 30/12 A3006 RMK A01 T03030115  RH  032%=      5-min Rain = 0
KHO1 120001Z 16009KT 30/12 A3006 RMK A01 T03030117  RH  032%=      5-min Rain = 0
KHO1 120002Z 17008KT 30/12 A3006 RMK A01 T03030118  RH  032%=      5-min Rain = 0
KHO1 120003Z 17013KT 30/12 A3007 RMK A01 T03030116  RH  032%=      5-min Rain = 0
KHO1 120004Z 17013KT 30/12 A3007 RMK A01 T03030115  RH  031%=      5-min Rain = 0
KHO1 120005Z 16013KT 30/11 A3007 RMK A01 T03020114  RH  031%=      5-min Rain = 0
KHO1 120006Z 17012KT 30/11 A3007 RMK A01 T03020114  RH  031%=      5-min Rain = 0
KHO1 120007Z 18012KT 30/12 A3007 RMK A01 T03020115  RH  032%=      5-min Rain = 0
KHO1 120008Z 17010KT 30/12 A3007 RMK A01 T03020115  RH  032%=      5-min Rain = 0
KHO1 120009Z 17008KT 30/12 A3007 RMK A01 T03020117  RH  032%=      5-min Rain = 0
KHO1 120010Z 17008KT 30/12 A3007 RMK A01 T03020117  RH  032%=      5-min Rain = 0
KHO1 120011Z 17008KT 30/12 A3007 RMK A01 T03020116  RH  032%=      5-min Rain = 0
KHO1 120012Z 16012KT 30/12 A3007 RMK A01 T03020116  RH  032%=      5-min Rain = 0
KHO1 120013Z 17011KT 30/11 A3007 RMK A01 T03020113  RH  031%=      5-min Rain = 0
KHO1 120014Z 16012KT 30/11 A3007 RMK A01 T03020113  RH  031%=      5-min Rain = 0
KHO1 120015Z 15013KT 30/11 A3007 RMK A01 T03020114  RH  032%=      5-min Rain = 0
KHO1 120016Z 15012KT 30/12 A3007 RMK A01 T03020115  RH  032%=      5-min Rain = 0
KHO1 120017Z 15012KT 30/11 A3007 RMK A01 T03020114  RH  031%=      5-min Rain = 0
KHO1 120018Z 15011KT 30/12 A3007 RMK A01 T03010115  RH  032%=      5-min Rain = 0
KHO1 120019Z 15013KT 30/11 A3007 RMK A01 T03010113  RH  031%=      5-min Rain = 0
KHO1 120020Z 15013KT 30/11 A3007 RMK A01 T03020113  RH  031%=      5-min Rain = 0
KHO1 120021Z 14011KT 30/12 A3007 RMK A01 T03020115  RH  032%=      5-min Rain = 0
KHO1 120022Z 16011KT 30/11 A3007 RMK A01 T03010114  RH  032%=      5-min Rain = 0
KHO1 120023Z 16011KT 30/11 A3007 RMK A01 T03020114  RH  031%=      5-min Rain = 0
KHO1 120024Z 17009KT 30/12 A3007 RMK A01 T03020116  RH  032%=      5-min Rain = 0
KHO1 120025Z 17010KT 30/12 A3007 RMK A01 T03020115  RH  032%=      5-min Rain = 0
KHO1 120026Z 17010KT 30/12 A3007 RMK A01 T03020115  RH  032%=      5-min Rain = 0
KHO1 120027Z 16009KT 30/11 A3007 RMK A01 T03020114  RH  031%=      5-min Rain = 0
KHO1 120028Z 16010KT 30/12 A3007 RMK A01 T03020115  RH  032%=      5-min Rain = 0
KHO1 120029Z 16010KT 30/12 A3007 RMK A01 T03020115  RH  031%=      5-min Rain = 0
KHO1 120030Z 16011KT 30/11 A3007 RMK A01 T03020114  RH  031%=      5-min Rain = 0
KHO1 120031Z 16010KT 30/11 A3007 RMK A01 T03020114  RH  031%=      5-min Rain = 0
KHO1 120032Z 16010KT 30/12 A3007 RMK A01 T03020115  RH  032%=      5-min Rain = 0
KHO1 120033Z 16011KT 30/11 A3007 RMK A01 T03020114  RH  031%=      5-min Rain = 0
KHO1 120034Z 16012KT 30/11 A3007 RMK A01 T03020114  RH  031%=      5-min Rain = 0
KHO1 120035Z 16012KT 30/11 A3007 RMK A01 T03020113  RH  031%=      5-min Rain = 0
KHO1 120036Z 15015KT 30/11 A3007 RMK A01 T03020114  RH  031%=      5-min Rain = 0
KHO1 120037Z 15013KT 30/11 A3007 RMK A01 T03020114  RH  031%=      5-min Rain = 0
KHO1 120038Z 15013KT 30/12 A3007 RMK A01 T03020115  RH  032%=      5-min Rain = 0
KHO1 120039Z 15012KT 30/12 A3007 RMK A01 T03010116  RH  032%=      5-min Rain = 0
KHO1 120040Z 15013KT 30/12 A3007 RMK A01 T03010117  RH  032%=      5-min Rain = 0
KHO1 120041Z 15014KT 30/12 A3007 RMK A01 T03010116  RH  032%=      5-min Rain = 0
KHO1 120042Z 15012KT 30/12 A3007 RMK A01 T03010117  RH  032%=      5-min Rain = 0
KHO1 120043Z 16014KT 30/12 A3007 RMK A01 T03010116  RH  032%=      5-min Rain = 0
KHO1 120044Z 15015KT 30/12 A3007 RMK A01 T03010116  RH  032%=      5-min Rain = 0
KHO1 120045Z 15015KT 30/12 A3007 RMK A01 T03010116  RH  032%=      5-min Rain = 0
KHO1 120046Z 15015KT 30/12 A3007 RMK A01 T03010116  RH  032%=      5-min Rain = 0
KHO1 120047Z 15013KT 30/12 A3007 RMK A01 T03010116  RH  032%=      5-min Rain = 0
KHO1 120048Z 16011KT 30/12 A3007 RMK A01 T03010117  RH  032%=      5-min Rain = 0
KHO1 120049Z 16012KT 30/12 A3007 RMK A01 T03010116  RH  032%=      5-min Rain = 0
KHO1 120050Z 16011KT 30/12 A3007 RMK A01 T03010117  RH  032%=      5-min Rain = 0
KHO1 120051Z 16011KT 30/12 A3007 RMK A01 T03010117  RH  032%=      5-min Rain = 0
KHO1 120052Z 16013KT 30/12 A3007 RMK A01 T03010118  RH  032%=      5-min Rain = 0
KHO1 120053Z 16012KT 30/12 A3007 RMK A01 T03010116  RH  032%=      5-min Rain = 0
KHO1 120054Z 16012KT 30/12 A3007 RMK A01 T03010118  RH  032%=      5-min Rain = 0
KHO1 120055Z 16012KT 30/12 A3007 RMK A01 T03010117  RH  032%=      5-min Rain = 0
KHO1 120056Z 16012KT 30/12 A3007 RMK A01 T03010117  RH  032%=      5-min Rain = 0
KHO1 120057Z 17012KT 30/12 A3007 RMK A01 T03010117  RH  032%=      5-min Rain = 0
KHO1 120058Z 17012KT 30/12 A3007 RMK A01 T03010117  RH  032%=      5-min Rain = 0
KHO1 120059Z 17011KT 30/12 A3007 RMK A01 T03010117  RH  032%=      5-min Rain = 0
KHO1 120100Z 17011KT 30/12 A3008 RMK A01 T03000118  RH  032%=      5-min Rain = 0
KHO1 120101Z 16012KT 30/12 A3008 RMK A01 T03000117  RH  032%=      5-min Rain = 0
KHO1 120102Z 17013G18KT 30/12 A3008 RMK A01 T03010115  RH  032%=      5-min Rain = 0
KHO1 120103Z 17016KT 30/12 A3008 RMK A01 T03010115  RH  032%=      5-min Rain = 0
KHO1 120104Z 17013KT 30/12 A3008 RMK A01 T03010115  RH  032%=      5-min Rain = 0
KHO1 120105Z 17012KT 30/12 A3008 RMK A01 T03010115  RH  032%=      5-min Rain = 0
KHO1 120106Z 17011KT 30/12 A3008 RMK A01 T03000116  RH  032%=      5-min Rain = 0
KHO1 120107Z 17012KT 30/12 A3008 RMK A01 T03000115  RH  032%=      5-min Rain = 0
KHO1 120108Z 16010KT 30/12 A3008 RMK A01 T03010115  RH  032%=      5-min Rain = 0
KHO1 120109Z 17011KT 30/12 A3008 RMK A01 T03000116  RH  032%=      5-min Rain = 0
KHO1 120110Z 16012KT 30/12 A3008 RMK A01 T03000116  RH  032%=      5-min Rain = 0
KHO1 120111Z 16013KT 30/12 A3008 RMK A01 T03000116  RH  032%=      5-min Rain = 0
KHO1 120112Z 17014KT 30/12 A3008 RMK A01 T03000115  RH  032%=      5-min Rain = 0
KHO1 120113Z 17012KT 30/12 A3008 RMK A01 T03000115  RH  032%=      5-min Rain = 0
KHO1 120114Z 17010KT 30/12 A3008 RMK A01 T03000116  RH  032%=      5-min Rain = 0
KHO1 120115Z 17010KT 30/12 A3008 RMK A01 T03000116  RH  032%=      5-min Rain = 0
KHO1 120116Z 18010KT 30/12 A3008 RMK A01 T02990117  RH  032%=      5-min Rain = 0
KHO1 120117Z 18009KT 30/12 A3009 RMK A01 T02990116  RH  032%=      5-min Rain = 0
KHO1 120118Z 18008KT 30/12 A3009 RMK A01 T02990117  RH  032%=      5-min Rain = 0
KHO1 120119Z 19007KT 30/12 A3009 RMK A01 T02990118  RH  033%=      5-min Rain = 0
KHO1 120120Z 21006KT 30/12 A3009 RMK A01 T02990117  RH  033%=      5-min Rain = 0
KHO1 120121Z 23006KT 30/12 A3009 RMK A01 T02980119  RH  033%=      5-min Rain = 0
KHO1 120122Z 29007KT 30/12 A3009 RMK A01 T02980123  RH  034%=      5-min Rain = 0
KHO1 120123Z 30009KT 29/14 A3009 RMK A01 T02920136  RH  038%=      5-min Rain = 0
KHO1 120124Z 29008KT 28/14 A3009 RMK A01 T02820139  RH  042%=      5-min Rain = 0
KHO1 120125Z 31007KT 28/14 A3009 RMK A01 T02750142  RH  044%=      5-min Rain = 0
KHO1 120126Z 31005KT 27/14 A3009 RMK A01 T02720143  RH  045%=      5-min Rain = 0
KHO1 120127Z 32004KT 27/15 A3009 RMK A01 T02690145  RH  046%=      5-min Rain = 0
KHO1 120128Z 30004KT 27/15 A3009 RMK A01 T02680146  RH  047%=      5-min Rain = 0
KHO1 120129Z 30004KT 27/15 A3009 RMK A01 T02660147  RH  048%=      5-min Rain = 0
KHO1 120130Z 31004KT 27/15 A3009 RMK A01 T02650148  RH  049%=      5-min Rain = 0
KHO1 120131Z 32004KT 26/15 A3009 RMK A01 T02640148  RH  049%=      5-min Rain = 0
KHO1 120132Z 33004KT 26/15 A3009 RMK A01 T02630147  RH  049%=      5-min Rain = 0
KHO1 120133Z 33005KT 26/15 A3009 RMK A01 T02630148  RH  049%=      5-min Rain = 0
KHO1 120134Z 33005KT 26/15 A3009 RMK A01 T02620148  RH  049%=      5-min Rain = 0
KHO1 120135Z 34005KT 26/15 A3009 RMK A01 T02620148  RH  050%=      5-min Rain = 0
KHO1 120136Z 32008KT 26/15 A3009 RMK A01 T02620148  RH  049%=      5-min Rain = 0
KHO1 120137Z 32008KT 26/15 A3009 RMK A01 T02620149  RH  050%=      5-min Rain = 0
KHO1 120138Z 32010KT 26/15 A3009 RMK A01 T02620150  RH  050%=      5-min Rain = 0
KHO1 120139Z 32009KT 26/15 A3009 RMK A01 T02600150  RH  051%=      5-min Rain = 0
KHO1 120140Z 31011KT 26/15 A3009 RMK A01 T02590151  RH  051%=      5-min Rain = 0
KHO1 120141Z 31013KT 26/15 A3009 RMK A01 T02580153  RH  052%=      5-min Rain = 0
KHO1 120142Z 31012KT 26/16 A301 RMK A01 T02550156  RH  054%=      5-min Rain = 0
KHO1 120143Z 31012KT 25/16 A301 RMK A01 T02530157  RH  055%=      5-min Rain = 0
KHO1 120144Z 31011KT 25/16 A301 RMK A01 T02510157  RH  056%=      5-min Rain = 0
KHO1 120145Z 32009KT 25/16 A301 RMK A01 T02500158  RH  057%=      5-min Rain = 0
KHO1 120146Z 31007KT 25/16 A301 RMK A01 T02490158  RH  057%=      5-min Rain = 0
KHO1 120147Z 30005KT 25/16 A301 RMK A01 T02480159  RH  058%=      5-min Rain = 0
KHO1 120148Z 31007KT 25/16 A301 RMK A01 T02480159  RH  058%=      5-min Rain = 0
KHO1 120149Z 31008KT 25/16 A301 RMK A01 T02480157  RH  057%=      5-min Rain = 0
KHO1 120150Z 31008KT 25/16 A301 RMK A01 T02490155  RH  056%=      5-min Rain = 0
KHO1 120151Z 30008KT 25/16 A301 RMK A01 T02500155  RH  055%=      5-min Rain = 0
KHO1 120152Z 32007KT 25/16 A301 RMK A01 T02510155  RH  055%=      5-min Rain = 0
KHO1 120153Z 31008KT 25/16 A3009 RMK A01 T02520155  RH  055%=      5-min Rain = 0
KHO1 120154Z 32008KT 25/16 A3009 RMK A01 T02520156  RH  055%=      5-min Rain = 0
KHO1 120155Z 32007KT 25/16 A301 RMK A01 T02520156  RH  055%=      5-min Rain = 0
KHO1 120156Z 32008KT 25/16 A3009 RMK A01 T02520157  RH  055%=      5-min Rain = 0
KHO1 120157Z 32008KT 25/16 A3009 RMK A01 T02520156  RH  055%=      5-min Rain = 0
KHO1 120158Z 32006KT 25/16 A301 RMK A01 T02520157  RH  055%=      5-min Rain = 0
KHO1 120159Z 32005KT 25/16 A301 RMK A01 T02520158  RH  056%=      5-min Rain = 0
KHO1 120200Z 32006KT 25/16 A301 RMK A01 T02520157  RH  056%=      5-min Rain = 0
KHO1 120201Z 33006KT 25/16 A301 RMK A01 T02520155  RH  055%=      5-min Rain = 0
KHO1 120202Z 33005KT 25/16 A301 RMK A01 T02530157  RH  055%=      5-min Rain = 0
KHO1 120203Z 33006KT 25/16 A301 RMK A01 T02530156  RH  055%=      5-min Rain = 0
KHO1 120204Z 34005KT 25/16 A301 RMK A01 T02530156  RH  055%=      5-min Rain = 0
KHO1 120205Z 34006KT 25/16 A3009 RMK A01 T02540155  RH  054%=      5-min Rain = 0
KHO1 120206Z 34007KT 25/16 A3009 RMK A01 T02540155  RH  054%=      5-min Rain = 0
KHO1 120207Z 34006KT 25/16 A3009 RMK A01 T02540156  RH  054%=      5-min Rain = 0
KHO1 120208Z 34005KT 25/16 A3009 RMK A01 T02540156  RH  054%=      5-min Rain = 0
KHO1 120209Z 34005KT 25/16 A3009 RMK A01 T02540156  RH  055%=      5-min Rain = 0
KHO1 120210Z 34005KT 25/16 A3009 RMK A01 T02540155  RH  054%=      5-min Rain = 0
KHO1 120211Z 34005KT 25/16 A3009 RMK A01 T02540156  RH  055%=      5-min Rain = 0
KHO1 120212Z 35005KT 25/16 A3009 RMK A01 T02540156  RH  055%=      5-min Rain = 0
KHO1 120213Z 34005KT 25/16 A3009 RMK A01 T02540156  RH  055%=      5-min Rain = 0
KHO1 120214Z 34005KT 25/16 A3009 RMK A01 T02540156  RH  055%=      5-min Rain = 0
KHO1 120215Z 34004KT 25/16 A3009 RMK A01 T02540157  RH  055%=      5-min Rain = 0
KHO1 120216Z 34004KT 25/16 A3009 RMK A01 T02540156  RH  055%=      5-min Rain = 0
KHO1 120217Z 34004KT 25/16 A3009 RMK A01 T02540158  RH  055%=      5-min Rain = 0
KHO1 120218Z 33005KT 25/16 A3009 RMK A01 T02530157  RH  055%=      5-min Rain = 0
KHO1 120219Z 34004KT 25/16 A301 RMK A01 T02530157  RH  055%=      5-min Rain = 0
KHO1 120220Z 32003KT 25/16 A301 RMK A01 T02520158  RH  056%=      5-min Rain = 0
KHO1 120221Z 33003KT 25/16 A301 RMK A01 T02520157  RH  056%=      5-min Rain = 0
KHO1 120222Z 33003KT 25/16 A301 RMK A01 T02520158  RH  056%=      5-min Rain = 0
KHO1 120223Z 35003KT 25/16 A301 RMK A01 T02520158  RH  056%=      5-min Rain = 0
KHO1 120224Z 35004KT 25/16 A301 RMK A01 T02520157  RH  056%=      5-min Rain = 0
KHO1 120225Z 35003KT 25/16 A301 RMK A01 T02530158  RH  056%=      5-min Rain = 0
KHO1 120226Z 35003KT 25/16 A301 RMK A01 T02530157  RH  055%=      5-min Rain = 0
KHO1 120227Z 34003KT 25/16 A301 RMK A01 T02530158  RH  056%=      5-min Rain = 0
KHO1 120228Z 34002KT 25/16 A301 RMK A01 T02530158  RH  056%=      5-min Rain = 0
KHO1 120229Z 34002KT 25/16 A301 RMK A01 T02530158  RH  056%=      5-min Rain = 0
KHO1 120230Z 34003KT 25/16 A301 RMK A01 T02530159  RH  056%=      5-min Rain = 0
KHO1 120231Z 34003KT 25/16 A301 RMK A01 T02520157  RH  055%=      5-min Rain = 0
KHO1 120232Z 34003KT 25/16 A301 RMK A01 T02530157  RH  055%=      5-min Rain = 0
KHO1 120233Z 34002KT 25/16 A301 RMK A01 T02530157  RH  055%=      5-min Rain = 0
KHO1 120234Z 34002KT 25/16 A301 RMK A01 T02530158  RH  056%=      5-min Rain = 0
KHO1 120235Z 34002KT 25/16 A301 RMK A01 T02530159  RH  056%=      5-min Rain = 0
KHO1 120236Z 34002KT 25/16 A301 RMK A01 T02530158  RH  056%=      5-min Rain = 0
KHO1 120237Z 34001KT 25/16 A301 RMK A01 T02530158  RH  055%=      5-min Rain = 0
KHO1 120238Z 34001KT 25/16 A301 RMK A01 T02530158  RH  056%=      5-min Rain = 0
KHO1 120239Z 34001KT 25/16 A301 RMK A01 T02530158  RH  055%=      5-min Rain = 0
KHO1 120240Z 34001KT 25/16 A301 RMK A01 T02530157  RH  055%=      5-min Rain = 0
KHO1 120241Z 33001KT 25/16 A301 RMK A01 T02530157  RH  055%=      5-min Rain = 0
KHO1 120242Z 33001KT 25/16 A301 RMK A01 T02530157  RH  055%=      5-min Rain = 0
KHO1 120243Z 33001KT 25/16 A301 RMK A01 T02530157  RH  055%=      5-min Rain = 0
KHO1 120244Z 33001KT 25/16 A301 RMK A01 T02530158  RH  056%=      5-min Rain = 0
KHO1 120245Z 33000KT 25/16 A301 RMK A01 T02530159  RH  056%=      5-min Rain = 0
KHO1 120246Z 33000KT 25/16 A301 RMK A01 T02530161  RH  057%=      5-min Rain = 0
KHO1 120247Z 33000KT 25/16 A301 RMK A01 T02520161  RH  057%=      5-min Rain = 0
KHO1 120248Z 00000KT 25/16 A301 RMK A01 T02520161  RH  057%=      5-min Rain = 0
KHO1 120249Z 00000KT 25/16 A3011 RMK A01 T02520160  RH  056%=      5-min Rain = 0
KHO1 120250Z 00000KT 25/16 A3011 RMK A01 T02520160  RH  057%=      5-min Rain = 0
KHO1 120251Z 00000KT 25/16 A3011 RMK A01 T02520159  RH  056%=      5-min Rain = 0
KHO1 120252Z 00000KT 25/16 A3011 RMK A01 T02520159  RH  056%=      5-min Rain = 0
KHO1 120253Z 33000KT 25/16 A3011 RMK A01 T02520158  RH  056%=      5-min Rain = 0
KHO1 120254Z 33000KT 25/16 A3011 RMK A01 T02520159  RH  056%=      5-min Rain = 0
KHO1 120255Z 00000KT 25/16 A3011 RMK A01 T02520160  RH  057%=      5-min Rain = 0
KHO1 120256Z 00000KT 25/16 A3011 RMK A01 T02520164  RH  058%=      5-min Rain = 0
KHO1 120257Z 00000KT 25/16 A3011 RMK A01 T02510161  RH  057%=      5-min Rain = 0
KHO1 120258Z 00000KT 25/16 A3011 RMK A01 T02510160  RH  057%=      5-min Rain = 0
KHO1 120259Z 35000KT 25/16 A3011 RMK A01 T02510163  RH  058%=      5-min Rain = 0
KHO1 120300Z 07001KT 25/17 A3011 RMK A01 T02510166  RH  059%=      5-min Rain = 0
KHO1 120301Z 08002KT 25/17 A3011 RMK A01 T02500165  RH  059%=      5-min Rain = 0
KHO1 120302Z 08001KT 25/16 A3011 RMK A01 T02490164  RH  059%=      5-min Rain = 0
KHO1 120303Z 08001KT 25/16 A3011 RMK A01 T02490161  RH  058%=      5-min Rain = 0
KHO1 120304Z 08001KT 25/16 A3011 RMK A01 T02490160  RH  058%=      5-min Rain = 0
KHO1 120305Z 08001KT 25/16 A3011 RMK A01 T02490158  RH  057%=      5-min Rain = 0
KHO1 120306Z 08002KT 25/16 A3011 RMK A01 T02500157  RH  056%=      5-min Rain = 0
KHO1 120307Z 08002KT 25/16 A3011 RMK A01 T02510156  RH  056%=      5-min Rain = 0
KHO1 120308Z 08002KT 25/16 A3011 RMK A01 T02510156  RH  056%=      5-min Rain = 0
KHO1 120309Z 08002KT 25/16 A3011 RMK A01 T02520158  RH  056%=      5-min Rain = 0
KHO1 120310Z 08002KT 25/16 A3011 RMK A01 T02520157  RH  056%=      5-min Rain = 0
KHO1 120311Z 08002KT 25/16 A3011 RMK A01 T02520157  RH  056%=      5-min Rain = 0
KHO1 120312Z 08001KT 25/16 A3011 RMK A01 T02520158  RH  056%=      5-min Rain = 0
KHO1 120313Z 08001KT 25/16 A3011 RMK A01 T02530160  RH  057%=      5-min Rain = 0
KHO1 120314Z 08001KT 25/16 A3012 RMK A01 T02530160  RH  056%=      5-min Rain = 0
KHO1 120315Z 08002KT 25/16 A3012 RMK A01 T02530160  RH  057%=      5-min Rain = 0
KHO1 120316Z 08001KT 25/16 A3012 RMK A01 T02530161  RH  057%=      5-min Rain = 0
KHO1 120317Z 08001KT 25/16 A3012 RMK A01 T02530160  RH  056%=      5-min Rain = 0
KHO1 120318Z 08001KT 25/16 A3012 RMK A01 T02530160  RH  056%=      5-min Rain = 0
KHO1 120319Z 08001KT 25/16 A3012 RMK A01 T02530162  RH  057%=      5-min Rain = 0
KHO1 120320Z 08001KT 25/16 A3012 RMK A01 T02530163  RH  057%=      5-min Rain = 0
KHO1 120321Z 08001KT 25/16 A3012 RMK A01 T02530161  RH  057%=      5-min Rain = 0
KHO1 120322Z 08001KT 25/16 A3012 RMK A01 T02530162  RH  057%=      5-min Rain = 0
KHO1 120323Z 08001KT 25/17 A3012 RMK A01 T02530165  RH  058%=      5-min Rain = 0
KHO1 120324Z 08001KT 25/16 A3012 RMK A01 T02530164  RH  058%=      5-min Rain = 0
KHO1 120325Z 07002KT 25/17 A3012 RMK A01 T02530165  RH  058%=      5-min Rain = 0
KHO1 120326Z 07002KT 25/17 A3012 RMK A01 T02530165  RH  058%=      5-min Rain = 0
KHO1 120327Z 06002KT 25/16 A3012 RMK A01 T02530162  RH  057%=      5-min Rain = 0
KHO1 120328Z 06002KT 25/16 A3012 RMK A01 T02530160  RH  056%=      5-min Rain = 0
KHO1 120329Z 06002KT 25/16 A3012 RMK A01 T02530159  RH  056%=      5-min Rain = 0
KHO1 120330Z 06003KT 25/16 A3012 RMK A01 T02540159  RH  056%=      5-min Rain = 0
KHO1 120331Z 06003KT 25/16 A3012 RMK A01 T02540158  RH  055%=      5-min Rain = 0
KHO1 120332Z 05002KT 25/16 A3012 RMK A01 T02540157  RH  055%=      5-min Rain = 0
KHO1 120333Z 06002KT 25/16 A3012 RMK A01 T02540157  RH  055%=      5-min Rain = 0
KHO1 120334Z 06002KT 26/16 A3013 RMK A01 T02550157  RH  055%=      5-min Rain = 0
KHO1 120335Z 06002KT 26/16 A3013 RMK A01 T02550158  RH  055%=      5-min Rain = 0
KHO1 120336Z 06002KT 26/16 A3013 RMK A01 T02550158  RH  055%=      5-min Rain = 0
KHO1 120337Z 06002KT 26/16 A3013 RMK A01 T02550158  RH  055%=      5-min Rain = 0
KHO1 120338Z 06002KT 26/16 A3013 RMK A01 T02550157  RH  055%=      5-min Rain = 0
KHO1 120339Z 06002KT 26/16 A3013 RMK A01 T02550156  RH  054%=      5-min Rain = 0
KHO1 120340Z 06002KT 26/16 A3013 RMK A01 T02550157  RH  055%=      5-min Rain = 0
KHO1 120341Z 05002KT 26/16 A3013 RMK A01 T02550156  RH  054%=      5-min Rain = 0
KHO1 120342Z 05002KT 26/16 A3013 RMK A01 T02550157  RH  055%=      5-min Rain = 0
KHO1 120343Z 05002KT 26/16 A3013 RMK A01 T02550160  RH  055%=      5-min Rain = 0
KHO1 120344Z 05002KT 26/16 A3013 RMK A01 T02560160  RH  055%=      5-min Rain = 0
KHO1 120345Z 05002KT 26/16 A3013 RMK A01 T02560160  RH  055%=      5-min Rain = 0
KHO1 120346Z 05001KT 26/16 A3013 RMK A01 T02560160  RH  055%=      5-min Rain = 0
KHO1 120347Z 05002KT 26/16 A3013 RMK A01 T02550160  RH  056%=      5-min Rain = 0
KHO1 120348Z 05002KT 26/16 A3013 RMK A01 T02550161  RH  056%=      5-min Rain = 0
KHO1 120349Z 05002KT 26/16 A3014 RMK A01 T02550160  RH  056%=      5-min Rain = 0
KHO1 120350Z 05002KT 26/16 A3014 RMK A01 T02550160  RH  056%=      5-min Rain = 0
KHO1 120351Z 05001KT 26/16 A3014 RMK A01 T02550159  RH  055%=      5-min Rain = 0
KHO1 120352Z 05001KT 26/16 A3014 RMK A01 T02550161  RH  056%=      5-min Rain = 0
KHO1 120353Z 05001KT 26/16 A3014 RMK A01 T02550164  RH  057%=      5-min Rain = 0
KHO1 120354Z 05001KT 26/16 A3014 RMK A01 T02550159  RH  055%=      5-min Rain = 0
KHO1 120355Z 05001KT 26/16 A3014 RMK A01 T02550159  RH  055%=      5-min Rain = 0
KHO1 120356Z 05001KT 26/16 A3014 RMK A01 T02560162  RH  056%=      5-min Rain = 0
KHO1 120357Z 05000KT 26/16 A3014 RMK A01 T02560164  RH  057%=      5-min Rain = 0
KHO1 120358Z 00000KT 26/16 A3014 RMK A01 T02560159  RH  055%=      5-min Rain = 0
KHO1 120359Z 00000KT 26/15 A3014 RMK A01 T02560154  RH  053%=      5-min Rain = 0
KHO1 120400Z 06000KT 26/16 A3014 RMK A01 T02570156  RH  054%=      5-min Rain = 0
KHO1 120401Z 00000KT 26/16 A3014 RMK A01 T02570155  RH  053%=      5-min Rain = 0
KHO1 120402Z 00000KT 26/16 A3014 RMK A01 T02580156  RH  054%=      5-min Rain = 0
KHO1 120403Z 07000KT 26/15 A3014 RMK A01 T02580154  RH  053%=      5-min Rain = 0
KHO1 120404Z 07000KT 26/15 A3014 RMK A01 T02580151  RH  052%=      5-min Rain = 0
KHO1 120405Z 07000KT 26/16 A3014 RMK A01 T02590158  RH  054%=      5-min Rain = 0
KHO1 120406Z 07000KT 26/16 A3014 RMK A01 T02590159  RH  054%=      5-min Rain = 0
KHO1 120407Z 07001KT 26/17 A3014 RMK A01 T02590165  RH  056%=      5-min Rain = 0
KHO1 120408Z 18001KT 26/16 A3014 RMK A01 T02580162  RH  055%=      5-min Rain = 0
KHO1 120409Z 19002KT 26/16 A3014 RMK A01 T02580160  RH  055%=      5-min Rain = 0
KHO1 120410Z 18002KT 26/16 A3014 RMK A01 T02580156  RH  053%=      5-min Rain = 0
KHO1 120411Z 18002KT 26/16 A3014 RMK A01 T02590157  RH  054%=      5-min Rain = 0
KHO1 120412Z 18004KT 26/15 A3014 RMK A01 T02590149  RH  051%=      5-min Rain = 0
KHO1 120413Z 18004KT 26/15 A3015 RMK A01 T02620149  RH  050%=      5-min Rain = 0
KHO1 120414Z 17004KT 26/15 A3014 RMK A01 T02620150  RH  050%=      5-min Rain = 0
KHO1 120415Z 18004KT 26/15 A3015 RMK A01 T02630148  RH  049%=      5-min Rain = 0
KHO1 120416Z 18004KT 26/15 A3015 RMK A01 T02630146  RH  048%=      5-min Rain = 0
KHO1 120417Z 18004KT 26/14 A3015 RMK A01 T02630144  RH  048%=      5-min Rain = 0
KHO1 120418Z 18003KT 26/14 A3015 RMK A01 T02630144  RH  048%=      5-min Rain = 0
KHO1 120419Z 18004KT 26/14 A3015 RMK A01 T02630144  RH  048%=      5-min Rain = 0
KHO1 120420Z 18006KT 26/14 A3015 RMK A01 T02630140  RH  047%=      5-min Rain = 0
KHO1 120421Z 18004KT 27/14 A3015 RMK A01 T02650140  RH  046%=      5-min Rain = 0
KHO1 120422Z 18004KT 27/14 A3015 RMK A01 T02650140  RH  046%=      5-min Rain = 0
KHO1 120423Z 19003KT 27/14 A3015 RMK A01 T02650142  RH  047%=      5-min Rain = 0
KHO1 120424Z 18004KT 26/14 A3015 RMK A01 T02640143  RH  047%=      5-min Rain = 0
KHO1 120425Z 18005KT 26/14 A3015 RMK A01 T02630140  RH  047%=      5-min Rain = 0
KHO1 120426Z 19005KT 26/14 A3015 RMK A01 T02640138  RH  046%=      5-min Rain = 0
KHO1 120427Z 19005KT 27/14 A3015 RMK A01 T02650139  RH  046%=      5-min Rain = 0
KHO1 120428Z 19006KT 26/14 A3015 RMK A01 T02640138  RH  046%=      5-min Rain = 0
KHO1 120429Z 18005KT 26/14 A3015 RMK A01 T02640139  RH  046%=      5-min Rain = 0
KHO1 120430Z 18005KT 26/14 A3015 RMK A01 T02640138  RH  046%=      5-min Rain = 0
KHO1 120431Z 18005KT 26/14 A3015 RMK A01 T02630138  RH  046%=      5-min Rain = 0
KHO1 120432Z 18005KT 26/14 A3015 RMK A01 T02630137  RH  046%=      5-min Rain = 0
KHO1 120433Z 18006KT 26/13 A3015 RMK A01 T02640134  RH  045%=      5-min Rain = 0
KHO1 120434Z 18007KT 26/13 A3015 RMK A01 T02640133  RH  044%=      5-min Rain = 0
KHO1 120435Z 18006KT 27/13 A3015 RMK A01 T02650132  RH  044%=      5-min Rain = 0
KHO1 120436Z 18006KT 27/13 A3015 RMK A01 T02650132  RH  044%=      5-min Rain = 0
KHO1 120437Z 18007KT 27/13 A3015 RMK A01 T02650131  RH  044%=      5-min Rain = 0
KHO1 120438Z 17007KT 27/13 A3015 RMK A01 T02650130  RH  043%=      5-min Rain = 0
KHO1 120439Z 18007KT 27/13 A3015 RMK A01 T02660129  RH  043%=      5-min Rain = 0
KHO1 120440Z 18007KT 27/13 A3015 RMK A01 T02660130  RH  043%=      5-min Rain = 0
KHO1 120441Z 17006KT 27/13 A3015 RMK A01 T02650130  RH  043%=      5-min Rain = 0
KHO1 120442Z 17006KT 26/13 A3015 RMK A01 T02640129  RH  043%=      5-min Rain = 0
KHO1 120443Z 17007KT 27/13 A3015 RMK A01 T02650128  RH  043%=      5-min Rain = 0
KHO1 120444Z 17006KT 27/13 A3015 RMK A01 T02650128  RH  043%=      5-min Rain = 0
KHO1 120445Z 17006KT 27/13 A3015 RMK A01 T02650128  RH  043%=      5-min Rain = 0
KHO1 120446Z 17008KT 27/13 A3015 RMK A01 T02650125  RH  042%=      5-min Rain = 0
KHO1 120447Z 17008KT 27/13 A3015 RMK A01 T02660125  RH  042%=      5-min Rain = 0
KHO1 120448Z 17008KT 27/12 A3015 RMK A01 T02660124  RH  041%=      5-min Rain = 0
KHO1 120449Z 17008KT 27/12 A3015 RMK A01 T02660124  RH  041%=      5-min Rain = 0
KHO1 120450Z 17008KT 27/12 A3015 RMK A01 T02670123  RH  041%=      5-min Rain = 0
KHO1 120451Z 17008KT 27/12 A3015 RMK A01 T02660124  RH  041%=      5-min Rain = 0
KHO1 120452Z 17008KT 27/12 A3015 RMK A01 T02660123  RH  041%=      5-min Rain = 0
KHO1 120453Z 17007KT 27/12 A3015 RMK A01 T02660124  RH  041%=      5-min Rain = 0
KHO1 120454Z 17008KT 27/12 A3015 RMK A01 T02650123  RH  041%=      5-min Rain = 0
KHO1 120455Z 17009KT 27/12 A3015 RMK A01 T02660122  RH  041%=      5-min Rain = 0
KHO1 120456Z 17007KT 27/12 A3015 RMK A01 T02660123  RH  041%=      5-min Rain = 0
KHO1 120457Z 17008KT 27/12 A3015 RMK A01 T02650123  RH  041%=      5-min Rain = 0
KHO1 120458Z 17009KT 27/12 A3015 RMK A01 T02650121  RH  041%=      5-min Rain = 0
KHO1 120459Z 17008KT 27/12 A3015 RMK A01 T02660121  RH  041%=      5-min Rain = 0

Page generated in 0.0328 seconds.